PWCRAW Weather Reports


time (UTC)temp
F
wind
direction
speed
knots
gust
knots
rain 1hr
in
rain 24hr
in
rain mn
in
humidity
%
barometer
mb
20260506191404 54 356 1.7 7.8 0.00 0.92 0.09 82 1005.1
20260506191204 54 356 0.9 6.1 0.00 0.92 0.09 81 1005.0
20260506191104 55 356 0.0 2.6 0.00 0.93 0.09 80 1005.1
20260506191004 55 356 0.0 2.6 0.00 0.93 0.09 79 1005.0
20260506190904 55 0 0.0 0.0 0.00 0.93 0.09 79 1004.8
20260506190804 55 0 0.0 0.0 0.00 0.93 0.09 79 1005.0
20260506190704 55 0 0.0 0.0 0.00 0.93 0.09 78 1004.8
20260506190405 55 234 0.0 3.5 0.00 0.94 0.09 78 1004.7
20260506190304 55 235 0.9 6.1 0.00 0.94 0.09 78 1004.7
20260506190204 55 227 0.9 6.1 0.00 0.94 0.09 78 1004.7
20260506190006 55 228 1.7 7.0 0.00 0.95 0.09 78 1004.7
20260506185904 55 226 2.6 7.0 0.00 0.95 0.09 78 1004.5
20260506185804 55 224 2.6 7.0 0.00 0.95 0.09 78 1004.6
20260506185704 55 220 2.6 7.0 0.00 0.95 0.09 78 1004.5
20260506185605 55 218 3.5 7.0 0.00 0.96 0.09 78 1004.5
20260506185504 55 216 3.5 7.0 0.00 0.96 0.09 78 1004.5
20260506185404 55 214 3.5 7.0 0.00 0.96 0.09 78 1004.3
20260506185307 55 211 3.5 7.0 0.00 0.96 0.09 78 1004.4
20260506185105 56 210 3.5 7.8 0.00 0.96 0.09 77 1004.5
20260506185004 56 209 3.5 7.8 0.00 0.96 0.09 77 1004.4
20260506184905 56 208 3.5 7.8 0.00 0.96 0.09 77 1004.2
20260506184805 56 208 3.5 7.8 0.00 0.97 0.09 77 1004.2
20260506184705 56 210 3.5 7.8 0.00 0.97 0.09 77 1004.1
20260506184605 56 212 3.5 7.8 0.00 0.97 0.09 77 1004.1
20260506184505 56 214 3.5 7.8 0.00 0.97 0.09 77 1004.2
20260506184405 56 215 3.5 7.8 0.00 0.97 0.09 77 1004.1
20260506184305 56 213 3.5 7.8 0.00 0.97 0.09 77 1004.3
20260506184204 56 213 3.5 7.8 0.00 0.97 0.09 77 1004.2
20260506184104 56 211 3.5 7.0 0.00 0.97 0.09 77 1004.3
20260506184007 56 213 3.5 7.0 0.00 0.97 0.09 77 1004.1
20260506183906 56 215 3.5 7.0 0.00 0.97 0.09 77 1004.1
20260506183804 56 215 3.5 7.8 0.00 0.97 0.09 77 1004.2
20260506183613 56 215 4.3 7.8 0.00 0.97 0.09 77 1004.2
20260506183604 56 214 4.3 7.8 0.00 0.97 0.09 77 1004.2
20260506183504 56 214 4.3 7.8 0.00 0.97 0.09 77 1004.1
20260506183313 56 216 4.3 12.2 0.00 0.97 0.09 77 1004.2
20260506183206 56 216 5.2 12.2 0.00 0.97 0.09 77 1004.0
20260506183005 56 215 5.2 12.2 0.00 0.97 0.09 77 1003.8
20260506182904 56 214 5.2 12.2 0.00 0.97 0.09 77 1004.0
20260506182804 56 214 5.2 12.2 0.00 0.97 0.09 77 1003.9
20260506182704 56 215 5.2 12.2 0.00 0.97 0.09 77 1003.8
20260506182604 56 214 5.2 12.2 0.00 0.97 0.09 77 1003.8
20260506182504 56 214 5.2 12.2 0.00 0.97 0.09 77 1003.9
20260506182307 56 216 5.2 9.6 0.00 0.98 0.09 77 1003.7
20260506182205 56 217 5.2 9.6 0.00 0.98 0.09 78 1003.9
20260506182106 56 216 4.3 9.6 0.00 0.98 0.09 78 1003.8
20260506182004 56 215 4.3 9.6 0.00 0.98 0.09 78 1003.9
20260506181904 56 217 4.3 7.8 0.00 0.98 0.09 78 1003.7
20260506181705 56 217 4.3 8.7 0.00 0.98 0.09 78 1003.8
20260506181604 56 217 4.3 8.7 0.00 0.98 0.09 78 1003.7
20260506181504 56 217 4.3 8.7 0.00 0.98 0.09 78 1003.7
20260506181404 56 215 3.5 8.7 0.00 0.98 0.09 78 1003.7
20260506181304 56 211 3.5 8.7 0.00 0.98 0.09 78 1003.8
20260506181204 56 210 3.5 8.7 0.00 0.98 0.09 78 1003.8
20260506181104 56 210 3.5 8.7 0.00 0.98 0.09 78 1003.9
20260506181005 56 207 2.6 8.7 0.00 0.98 0.09 78 1003.9
20260506180904 56 205 2.6 8.7 0.00 0.98 0.09 78 1003.8
20260506180804 56 204 2.6 7.8 0.01 0.98 0.09 78 1003.7
20260506180704 56 206 3.5 7.8 0.01 0.98 0.09 78 1004.0
20260506180604 56 208 3.5 7.8 0.01 0.98 0.09 78 1003.8
20260506180505 56 209 4.3 7.8 0.01 0.99 0.09 78 1003.7
20260506180405 56 211 4.3 7.8 0.01 0.99 0.09 78 1003.8
20260506180305 56 213 5.2 7.8 0.01 0.99 0.09 78 1003.7
20260506180205 56 214 5.2 7.8 0.01 0.99 0.09 78 1003.9
20260506180106 56 216 5.2 7.8 0.01 0.99 0.09 78 1003.7
20260506180011 56 217 5.2 7.8 0.01 0.99 0.09 78 1003.8
20260506175905 56 214 6.1 7.8 0.01 0.99 0.09 78 1003.7
20260506175811 56 212 6.1 7.8 0.01 0.99 0.09 78 1003.7
20260506175711 56 209 6.1 7.8 0.01 0.99 0.09 78 1003.6
20260506175704 56 208 6.1 7.8 0.01 0.99 0.09 78 1003.6
20260506175511 56 201 6.1 7.8 0.01 0.99 0.09 79 1003.8
20260506175404 56 199 6.1 7.8 0.01 0.99 0.09 79 1003.6
20260506175204 56 192 5.2 7.8 0.01 0.99 0.09 79 1003.6
20260506175104 56 188 6.1 7.8 0.01 1.00 0.09 79 1003.6
20260506175004 56 188 6.1 9.6 0.01 1.00 0.09 79 1003.6
20260506174911 56 189 5.2 9.6 0.01 1.00 0.09 79 1003.8
20260506174904 56 190 5.2 9.6 0.01 1.00 0.09 79 1003.8
20260506174604 56 190 5.2 9.6 0.01 1.00 0.09 79 1003.6
20260506174504 56 190 5.2 9.6 0.01 1.00 0.09 80 1003.7
20260506174404 56 189 5.2 9.6 0.01 1.00 0.09 80 1003.8
20260506174305 56 189 5.2 9.6 0.01 1.00 0.09 80 1003.8
20260506174106 56 196 5.2 9.6 0.01 1.00 0.09 80 1003.7
20260506174004 56 198 5.2 8.7 0.01 1.00 0.09 80 1003.6
20260506173904 56 198 5.2 8.7 0.01 1.00 0.09 80 1003.8
20260506173804 56 196 5.2 8.7 0.01 1.00 0.09 80 1003.9
20260506173704 56 197 5.2 8.7 0.01 1.00 0.09 80 1003.8
20260506173605 56 202 5.2 8.7 0.01 1.00 0.09 80 1003.9
20260506173411 56 209 5.2 7.8 0.01 1.00 0.09 80 1003.8
20260506173404 56 210 5.2 7.8 0.01 1.00 0.09 80 1003.8
20260506173304 56 218 5.2 7.0 0.01 1.00 0.09 79 1004.1
20260506173104 55 230 5.2 7.0 0.01 1.00 0.09 79 1003.9
20260506173004 55 231 5.2 7.0 0.01 1.00 0.09 79 1003.8
20260506172904 55 230 5.2 8.7 0.01 1.00 0.09 79 1003.9
20260506172805 55 232 5.2 13.0 0.01 1.00 0.09 79 1003.9
20260506172704 55 237 6.1 13.0 0.01 1.00 0.09 78 1004.1
20260506172604 55 236 6.1 13.0 0.01 1.00 0.09 78 1004.0
20260506172504 55 237 6.1 13.0 0.01 1.00 0.09 78 1004.1
20260506172404 55 235 7.0 13.0 0.01 1.00 0.09 78 1004.0
20260506172306 55 233 7.0 13.0 0.01 1.00 0.09 78 1003.9
20260506172211 55 230 7.0 13.0 0.01 1.00 0.09 78 1004.0
20260506172204 55 229 7.0 13.0 0.01 1.00 0.09 78 1004.0
20260506172105 55 225 7.8 13.0 0.01 1.00 0.09 78 1004.1
20260506171804 56 233 8.7 15.6 0.01 1.00 0.09 78 1003.9
20260506171712 56 230 8.7 16.5 0.00 1.00 0.08 77 1003.9
20260506171704 56 230 8.7 16.5 0.00 1.00 0.08 77 1003.9
20260506171604 56 232 8.7 16.5 0.00 1.00 0.08 76 1004.0
20260506171404 56 235 9.6 18.2 0.00 1.00 0.08 75 1003.9
20260506171304 57 234 10.4 18.2 0.00 1.00 0.08 75 1003.9
20260506171204 57 236 10.4 18.2 0.00 1.00 0.08 73 1003.9
20260506171105 57 236 10.4 22.6 0.00 1.00 0.08 73 1003.9
20260506171004 57 237 10.4 22.6 0.00 1.00 0.08 72 1004.0
20260506170904 58 234 10.4 22.6 0.00 1.00 0.08 72 1003.9
20260506170804 58 232 10.4 22.6 0.00 1.00 0.08 72 1003.9
20260506170705 58 232 9.6 22.6 0.00 1.00 0.08 71 1004.0
20260506170504 58 229 9.6 22.6 0.00 1.00 0.08 69 1004.0
20260506170404 58 228 9.6 22.6 0.00 1.00 0.08 68 1004.0
20260506170304 58 227 9.6 22.6 0.00 1.00 0.08 68 1003.9
20260506170204 58 227 8.7 22.6 0.00 1.00 0.08 68 1003.9
20260506170104 58 226 7.8 18.2 0.00 1.00 0.08 69 1004.0
20260506170005 58 225 7.8 15.6 0.00 1.00 0.08 69 1004.1
20260506165904 59 227 7.0 15.6 0.00 1.00 0.08 69 1004.1
20260506165804 59 228 7.0 15.6 0.00 1.00 0.08 69 1004.1
20260506165706 59 230 7.0 15.6 0.00 1.00 0.08 70 1004.0
20260506165604 59 231 7.0 15.6 0.00 1.00 0.08 70 1004.1
20260506165504 59 234 7.0 15.6 0.00 1.00 0.08 70 1003.9
20260506165404 59 237 6.1 13.9 0.00 1.00 0.08 70 1004.2
20260506165305 59 242 6.1 13.9 0.00 1.00 0.08 70 1004.2
20260506165204 59 244 6.1 13.9 0.00 1.00 0.08 69 1004.2
20260506165104 59 247 7.0 13.9 0.00 1.00 0.08 69 1004.1
20260506165011 59 251 7.0 13.9 0.00 1.00 0.08 69 1004.1
20260506165005 59 252 7.0 13.9 0.00 1.00 0.08 69 1004.1
20260506164904 60 253 7.0 13.9 0.00 1.00 0.08 69 1004.0
20260506164704 60 253 7.0 13.9 0.00 1.00 0.08 68 1004.0
20260506164604 60 254 6.1 13.0 0.00 1.00 0.08 67 1004.0
20260506164504 60 256 6.1 13.0 0.00 1.00 0.08 67 1004.0
20260506164404 61 255 6.1 13.0 0.00 1.00 0.08 67 1004.3
20260506164304 61 254 6.1 13.0 0.00 1.00 0.08 66 1004.0
20260506164204 61 250 5.2 13.0 0.00 1.00 0.08 66 1004.1
20260506164104 61 248 5.2 13.0 0.00 1.00 0.08 66 1003.9
20260506163911 62 243 3.5 12.2 0.00 1.00 0.08 67 1004.0
20260506163904 62 244 3.5 12.2 0.00 1.00 0.08 66 1004.0
20260506163805 62 244 3.5 11.3 0.00 1.00 0.08 66 1004.0
20260506163604 62 237 2.6 6.1 0.00 1.00 0.08 66 1003.7
20260506163504 62 239 2.6 8.7 0.00 1.00 0.08 66 1003.8
20260506163404 62 239 2.6 8.7 0.00 1.00 0.08 66 1003.8
20260506163305 62 235 2.6 8.7 0.00 1.00 0.08 66 1003.9
20260506163105 62 235 3.5 8.7 0.00 1.00 0.08 66 1003.8
20260506163004 62 233 3.5 9.6 0.00 1.00 0.08 65 1003.8
20260506162804 62 230 4.3 9.6 0.00 1.00 0.08 65 1003.9
20260506162704 62 230 4.3 9.6 0.00 1.00 0.08 65 1003.8
20260506162604 63 230 5.2 9.6 0.00 1.00 0.08 65 1003.8
20260506162504 63 227 5.2 9.6 0.00 1.00 0.08 65 1003.8
20260506162307 63 223 5.2 12.2 0.00 1.00 0.08 65 1003.7
20260506162204 63 222 5.2 12.2 0.00 1.00 0.08 65 1003.5
20260506162104 63 221 5.2 12.2 0.00 1.00 0.08 65 1003.9
20260506162011 63 220 5.2 13.0 0.00 1.00 0.08 65 1003.5
20260506162005 63 220 5.2 13.0 0.00 1.00 0.08 65 1003.5
20260506161904 63 217 5.2 13.0 0.00 1.00 0.08 65 1003.7
20260506161704 63 213 5.2 13.0 0.00 1.00 0.08 65 1003.7
20260506161604 63 210 4.3 13.0 0.00 1.00 0.08 65 1003.8
20260506161505 63 207 4.3 13.0 0.00 1.00 0.08 65 1003.6
20260506161404 63 205 4.3 13.0 0.00 1.00 0.08 65 1003.7
20260506161304 63 206 4.3 13.0 0.00 1.00 0.08 65 1003.8
20260506161104 64 203 4.3 13.0 0.00 1.00 0.08 65 1003.5
20260506161004 64 205 4.3 13.0 0.00 1.00 0.08 65 1003.7
20260506160911 64 207 4.3 9.6 0.00 1.00 0.08 66 1003.7
20260506160904 64 208 4.3 9.6 0.00 1.00 0.08 66 1003.7
20260506160804 64 209 4.3 9.6 0.00 1.00 0.08 66 1003.6
20260506160605 64 209 5.2 9.6 0.00 1.00 0.08 65 1003.5
20260506160511 64 212 5.2 9.6 0.00 1.00 0.08 65 1003.7
20260506160504 64 213 5.2 9.6 0.00 1.00 0.08 65 1003.7
20260506160404 64 215 5.2 9.6 0.00 1.00 0.08 66 1003.6
20260506160105 64 220 4.3 8.7 0.00 1.00 0.08 65 1003.6
20260506160006 64 217 4.3 8.7 0.00 1.00 0.08 65 1003.7
20260506155904 64 214 5.2 12.2 0.00 1.00 0.08 64 1003.7
20260506155704 64 216 5.2 14.8 0.00 1.00 0.08 65 1003.5
20260506155604 64 217 5.2 14.8 0.00 1.00 0.08 65 1003.7
20260506155504 64 216 5.2 14.8 0.00 1.00 0.08 65 1003.6
20260506155411 64 215 5.2 14.8 0.00 1.00 0.08 65 1003.5
20260506155306 64 215 5.2 14.8 0.00 1.00 0.08 64 1003.5
20260506155104 64 215 5.2 14.8 0.00 1.00 0.08 64 1003.5
20260506155004 64 216 5.2 14.8 0.00 1.00 0.08 64 1003.5
20260506154904 64 217 4.3 14.8 0.00 1.00 0.08 64 1003.5
20260506154804 64 220 4.3 13.0 0.00 1.00 0.08 65 1003.6
20260506154704 64 222 4.3 9.6 0.00 1.00 0.08 66 1003.7
20260506154604 64 223 3.5 9.6 0.00 1.00 0.08 66 1003.7
20260506154504 64 226 3.5 9.6 0.00 1.00 0.08 65 1003.7
20260506154204 63 238 4.3 9.6 0.00 1.00 0.08 67 1003.5
20260506154104 63 238 4.3 9.6 0.00 1.00 0.08 67 1003.6
20260506153904 63 239 4.3 9.6 0.00 1.00 0.08 67 1003.5
20260506153804 63 237 4.3 9.6 0.00 1.00 0.08 67 1003.5
20260506153704 63 238 4.3 8.7 0.00 1.00 0.08 67 1003.2
20260506153604 63 239 4.3 8.7 0.00 1.00 0.08 66 1003.5
20260506153404 63 238 4.3 8.7 0.00 1.00 0.08 66 1003.6
20260506153304 63 235 4.3 8.7 0.00 1.00 0.08 66 1003.5
20260506153204 63 231 4.3 9.6 0.00 1.00 0.08 66 1003.6
20260506153104 63 228 5.2 9.6 0.00 1.00 0.08 66 1003.7
20260506152904 63 227 5.2 11.3 0.00 1.00 0.08 66 1003.3
20260506152804 63 226 5.2 11.3 0.00 1.00 0.08 66 1003.5
20260506152711 64 222 5.2 14.8 0.00 1.00 0.08 66 1003.6
20260506152704 64 221 5.2 14.8 0.00 1.00 0.08 66 1003.6
20260506152611 64 216 5.2 14.8 0.00 1.00 0.08 66 1003.5
20260506152604 64 215 5.2 14.8 0.00 1.00 0.08 66 1003.5
20260506152311 64 208 6.1 14.8 0.00 1.00 0.08 66 1003.5
20260506152306 64 207 6.1 14.8 0.00 1.00 0.08 66 1003.5
20260506152204 64 205 6.1 14.8 0.00 1.00 0.08 65 1003.3
20260506152004 64 205 6.1 14.8 0.00 1.00 0.08 66 1003.5
20260506151904 64 204 6.1 14.8 0.00 1.00 0.08 66 1003.5
20260506151704 64 204 6.1 14.8 0.00 1.00 0.08 65 1003.5
20260506151612 64 206 6.1 13.9 0.00 1.00 0.08 65 1003.3
20260506151604 64 206 6.1 13.9 0.00 1.00 0.08 65 1003.3
20260506151504 64 206 6.1 13.9 0.00 1.00 0.08 65 1003.3
20260506151304 64 206 6.1 13.9 0.00 1.00 0.08 64 1003.5
20260506151204 64 207 6.1 13.9 0.00 1.00 0.08 64 1003.5
20260506151104 64 209 6.1 13.9 0.00 1.00 0.08 64 1003.6
20260506151006 65 204 6.1 13.9 0.00 1.00 0.08 64 1003.6
20260506150904 65 203 5.2 13.9 0.00 1.00 0.08 64 1003.5
20260506150804 65 206 6.1 14.8 0.00 1.00 0.08 63 1003.6
20260506150704 65 206 5.2 14.8 0.00 1.00 0.08 62 1003.1
20260506150604 65 209 5.2 14.8 0.00 1.00 0.08 62 1003.5
20260506150505 65 211 5.2 14.8 0.00 1.00 0.08 62 1003.5
20260506150404 65 212 6.1 14.8 0.00 1.00 0.08 61 1003.3
20260506150305 65 213 6.1 14.8 0.00 1.00 0.08 61 1003.2
20260506150204 65 217 6.1 14.8 0.00 1.00 0.08 59 1003.3
20260506150104 65 218 6.1 14.8 0.00 1.00 0.08 59 1003.3
20260506150005 66 219 6.1 14.8 0.00 1.00 0.08 59 1003.2
20260506145904 66 220 6.1 14.8 0.00 1.00 0.08 59 1003.5
20260506145804 66 220 5.2 13.0 0.00 1.00 0.08 60 1003.5
20260506145705 66 222 5.2 13.0 0.00 1.00 0.08 60 1003.6
20260506145604 66 217 5.2 13.0 0.00 1.00 0.08 59 1003.5
20260506145504 67 213 5.2 13.0 0.00 1.00 0.08 59 1003.3
20260506145404 67 211 5.2 13.0 0.00 1.00 0.08 59 1003.5
20260506145306 67 206 5.2 12.2 0.00 1.00 0.08 59 1003.3
20260506145204 67 198 4.3 12.2 0.00 1.00 0.08 60 1003.3
20260506145104 67 198 4.3 12.2 0.00 1.00 0.08 61 1003.5
20260506145004 67 199 3.5 12.2 0.00 1.00 0.08 62 1003.3
20260506144904 67 196 3.5 8.7 0.00 1.00 0.08 62 1003.6
20260506144804 66 198 3.5 8.7 0.00 1.00 0.08 62 1003.2
20260506144705 66 197 3.5 8.7 0.00 1.00 0.08 62 1003.2
20260506144604 66 201 2.6 8.7 0.00 1.00 0.08 62 1003.3
20260506144511 66 203 2.6 8.7 0.00 1.00 0.08 64 1003.3
20260506144504 66 202 3.5 8.7 0.00 1.00 0.08 64 1003.3
20260506144404 66 206 3.5 8.7 0.00 1.00 0.08 64 1003.6
20260506144205 65 207 2.6 8.7 0.00 1.00 0.08 60 1003.5
20260506144104 65 210 2.6 8.7 0.00 1.00 0.08 60 1003.5
20260506144004 65 212 3.5 8.7 0.00 1.00 0.08 61 1003.6
20260506143904 65 215 3.5 8.7 0.00 1.00 0.08 61 1003.3
20260506143812 65 224 2.6 8.7 0.00 1.00 0.08 63 1003.7
20260506143805 65 225 2.6 8.7 0.00 1.00 0.08 63 1003.7
20260506143704 65 232 2.6 7.0 0.00 1.00 0.08 62 1003.6
20260506143512 65 276 2.6 9.6 0.00 1.00 0.08 61 1003.3
20260506143504 65 278 2.6 9.6 0.00 1.00 0.08 61 1003.3
20260506143411 65 281 2.6 9.6 0.00 1.00 0.08 64 1003.6
20260506143404 65 281 2.6 9.6 0.00 1.00 0.08 64 1003.6
20260506143104 65 299 4.3 9.6 0.00 1.00 0.08 60 1003.5
20260506143011 65 307 4.3 9.6 0.00 1.00 0.08 60 1003.6
20260506143004 65 309 4.3 9.6 0.00 1.00 0.08 62 1003.6
20260506142911 65 315 4.3 9.6 0.00 1.00 0.08 62 1003.3
20260506142904 65 316 4.3 9.6 0.00 1.00 0.08 62 1003.3
20260506142604 66 336 5.2 9.6 0.00 1.00 0.08 63 1003.3
20260506142505 66 342 5.2 9.6 0.00 1.00 0.08 65 1003.2
20260506142411 66 346 4.3 9.6 0.00 1.00 0.08 64 1003.3
20260506142406 66 345 4.3 9.6 0.00 1.00 0.08 64 1003.3
20260506142306 66 351 4.3 9.6 0.00 1.00 0.08 64 1003.3
20260506142111 66 357 3.5 9.6 0.00 1.00 0.08 64 1003.3
20260506142104 66 358 3.5 9.6 0.00 1.00 0.08 64 1003.3
20260506142004 66 1 2.6 9.6 0.00 1.00 0.08 64 1003.5
20260506141804 66 9 1.7 8.7 0.00 1.00 0.08 62 1003.3
20260506141714 66 9 1.7 7.8 0.00 1.00 0.08 62 1003.3
20260506141705 66 4 1.7 7.8 0.00 1.00 0.08 64 1003.3
20260506141604 66 313 1.7 7.8 0.00 1.00 0.08 64 1003.6
20260506141406 66 229 1.7 5.2 0.00 1.00 0.08 59 1003.6
20260506141304 66 215 1.7 7.8 0.00 1.00 0.08 61 1003.7
20260506141204 66 210 1.7 7.8 0.00 1.00 0.08 59 1003.8
20260506141104 66 205 1.7 7.8 0.00 1.00 0.08 62 1003.6
20260506141004 66 203 1.7 7.8 0.00 1.00 0.08 60 1003.3
20260506140904 66 198 1.7 7.8 0.00 1.00 0.08 62 1003.5
20260506140806 66 194 1.7 7.8 0.00 1.00 0.08 62 1003.5
20260506140704 66 193 1.7 7.8 0.00 1.00 0.08 63 1003.6
20260506140604 65 181 1.7 7.8 0.00 1.00 0.08 63 1003.6
20260506140413 65 135 1.7 7.8 0.00 1.00 0.08 62 1003.8
20260506140406 65 126 1.7 7.8 0.00 1.00 0.08 62 1003.8
20260506140314 65 80 1.7 5.2 0.00 1.00 0.08 63 1003.7
20260506140305 65 75 1.7 5.2 0.00 1.00 0.08 63 1003.7
20260506140007 65 32 1.7 5.2 0.00 1.00 0.08 65 1003.5
20260506135906 65 14 1.7 6.1 0.00 1.00 0.08 64 1003.6
20260506135806 65 13 2.6 6.1 0.00 1.00 0.08 61 1003.7
20260506135711 65 13 2.6 6.1 0.00 1.00 0.08 61 1003.5
20260506135705 65 13 2.6 6.1 0.00 1.00 0.08 61 1003.5
20260506135604 65 9 2.6 6.1 0.00 1.00 0.08 64 1003.6
20260506135404 65 355 1.7 6.1 0.00 1.00 0.08 64 1003.8
20260506135306 65 346 0.9 6.1 0.00 1.00 0.08 62 1003.7
20260506135204 65 342 0.9 6.1 0.00 1.00 0.08 62 1003.5
20260506135104 65 340 0.9 6.1 0.00 1.00 0.08 62 1003.6
20260506135011 65 344 0.9 6.1 0.00 1.00 0.08 65 1003.9
20260506135004 65 348 0.9 6.1 0.00 1.00 0.08 65 1003.9
20260506134904 65 7 0.9 6.1 0.00 1.00 0.08 63 1003.7
20260506134713 65 0 0.0 0.0 0.00 1.00 0.08 61 1003.8
20260506134704 65 243 0.0 0.9 0.00 1.00 0.08 61 1003.8
20260506134604 65 246 0.0 5.2 0.00 1.00 0.08 61 1003.8
20260506134513 65 242 0.9 6.1 0.00 1.00 0.08 61 1003.7
20260506134406 65 242 0.9 6.1 0.00 1.00 0.08 61 1003.6
20260506134205 65 234 1.7 7.0 0.00 1.00 0.08 58 1003.8
20260506134106 65 234 1.7 7.0 0.00 1.00 0.08 59 1003.5
20260506133904 66 234 1.7 7.0 0.00 1.00 0.08 59 1003.7
20260506133804 66 232 1.7 7.0 0.00 1.00 0.08 57 1003.7
20260506133704 66 233 1.7 7.0 0.00 1.00 0.08 59 1003.6
20260506133604 66 235 1.7 7.0 0.00 1.00 0.08 61 1003.9
20260506133404 66 240 2.6 7.8 0.00 1.00 0.08 62 1003.8
20260506133306 66 241 2.6 7.8 0.00 1.00 0.08 64 1003.8
20260506133205 65 238 2.6 7.8 0.00 1.00 0.08 60 1003.7
20260506133104 66 236 2.6 7.8 0.00 1.00 0.08 60 1003.9
20260506133004 66 237 2.6 7.8 0.00 1.00 0.08 61 1003.7
20260506132904 66 238 2.6 7.8 0.00 1.00 0.08 62 1003.8
20260506132811 66 240 2.6 7.8 0.00 1.00 0.08 62 1003.6
20260506132704 66 243 2.6 7.8 0.00 1.00 0.08 61 1003.7
20260506132504 66 236 3.5 7.8 0.00 1.00 0.08 61 1003.6
20260506132404 66 235 2.6 7.8 0.00 1.00 0.08 62 1003.7
20260506132307 66 235 2.6 7.8 0.00 1.00 0.08 60 1003.8
20260506132204 66 238 2.6 7.8 0.00 1.00 0.08 61 1003.6
20260506132106 66 238 2.6 7.8 0.00 1.00 0.08 61 1003.7
20260506132005 66 232 3.5 11.3 0.00 1.00 0.08 59 1003.8
20260506131912 66 227 3.5 11.3 0.00 1.00 0.08 59 1003.9
20260506131904 66 226 3.5 11.3 0.00 1.00 0.08 59 1003.9
20260506131804 66 221 3.5 11.3 0.00 1.00 0.08 60 1003.9
20260506131606 67 209 5.2 15.6 0.00 1.00 0.08 60 1003.7
20260506131504 67 204 5.2 15.6 0.00 1.00 0.08 59 1003.9
20260506131404 67 204 5.2 15.6 0.00 1.00 0.08 60 1003.7
20260506131305 67 201 5.2 15.6 0.00 1.00 0.08 60 1003.9
20260506131206 67 197 5.2 15.6 0.00 1.00 0.08 58 1003.8
20260506131104 67 195 5.2 15.6 0.00 1.00 0.08 59 1003.9
20260506131004 67 198 5.2 15.6 0.00 1.00 0.08 60 1003.8
20260506130904 67 198 5.2 15.6 0.00 1.00 0.08 58 1003.9
20260506130804 67 198 5.2 15.6 0.00 1.00 0.08 58 1004.1
20260506130705 67 201 5.2 15.6 0.00 1.00 0.08 58 1003.9
20260506130604 67 202 4.3 11.3 0.00 1.00 0.08 60 1003.8
20260506130504 67 206 4.3 9.6 0.00 1.00 0.08 61 1003.9
20260506130404 67 206 4.3 9.6 0.00 1.00 0.08 60 1003.9
20260506130304 67 205 4.3 9.6 0.00 1.00 0.08 60 1003.7
20260506130204 67 207 4.3 9.6 0.00 1.00 0.08 58 1003.8
20260506130104 67 206 4.3 9.6 0.00 1.00 0.08 59 1003.9
20260506130006 67 206 5.2 12.2 0.00 1.00 0.08 58 1003.8
20260506125904 67 208 5.2 13.0 0.00 1.00 0.08 57 1003.8
20260506125804 67 209 5.2 13.0 0.00 1.00 0.08 58 1003.8
20260506125705 67 208 5.2 13.0 0.00 1.00 0.08 57 1003.9
20260506125604 67 206 6.1 13.9 0.00 1.00 0.08 57 1004.0
20260506125504 68 206 6.1 13.9 0.00 1.00 0.08 57 1003.9
20260506125405 68 201 6.1 13.9 0.00 1.00 0.08 57 1004.0
20260506125305 68 205 6.1 13.9 0.00 1.00 0.08 56 1003.9
20260506125204 68 207 7.0 13.9 0.00 1.00 0.08 57 1004.0
20260506125111 68 210 7.0 14.8 0.00 1.00 0.08 57 1004.0
20260506125104 68 211 7.8 14.8 0.00 1.00 0.08 57 1004.0
20260506125004 68 212 7.8 14.8 0.00 1.00 0.08 58 1003.8
20260506124804 67 213 7.0 14.8 0.00 1.00 0.08 57 1003.9
20260506124704 67 212 7.0 14.8 0.00 1.00 0.08 58 1004.0
20260506124604 67 216 7.0 14.8 0.00 1.00 0.08 58 1004.0
20260506124511 67 214 7.8 14.8 0.00 1.00 0.08 58 1004.0
20260506124504 67 215 7.8 14.8 0.00 1.00 0.08 58 1004.0
20260506124404 66 218 7.8 14.8 0.00 1.00 0.08 58 1004.0
20260506124204 66 222 7.0 14.8 0.00 1.00 0.08 59 1004.0
20260506124105 65 223 7.0 13.9 0.00 1.00 0.08 59 1003.8
20260506124004 65 225 6.1 13.9 0.00 1.00 0.08 60 1003.9
20260506123904 65 225 6.1 13.9 0.00 1.00 0.08 60 1003.9
20260506123804 65 224 7.0 13.9 0.00 1.00 0.08 60 1004.0
20260506123704 65 228 6.1 13.9 0.00 1.00 0.08 60 1003.9
20260506123504 65 232 6.1 13.9 0.00 1.00 0.08 60 1004.0
20260506123404 65 232 6.1 12.2 0.00 1.00 0.08 63 1003.9
20260506123304 65 233 6.1 12.2 0.00 1.00 0.08 63 1003.8
20260506123211 65 232 6.1 13.9 0.00 1.00 0.08 63 1003.8
20260506123204 65 231 6.1 13.9 0.00 1.00 0.08 63 1003.8
20260506123105 65 228 7.0 13.9 0.00 1.00 0.08 62 1004.1
20260506122904 66 224 7.0 13.9 0.00 1.00 0.08 62 1004.1
20260506122804 66 221 7.0 13.9 0.00 1.00 0.08 59 1003.8
20260506122711 66 221 7.0 13.9 0.00 1.00 0.08 62 1004.1
20260506122704 66 220 7.0 13.9 0.00 1.00 0.08 62 1004.1
20260506122604 66 221 7.0 13.9 0.00 1.00 0.08 63 1004.0
20260506122404 66 227 7.0 13.9 0.00 1.00 0.08 60 1004.0
20260506122306 67 226 7.0 13.9 0.00 1.00 0.08 61 1003.9
20260506122204 67 225 7.0 13.0 0.00 1.00 0.08 61 1004.0
20260506122104 67 229 6.1 12.2 0.00 1.00 0.08 60 1004.1
20260506122004 66 231 6.1 12.2 0.00 1.00 0.08 61 1004.0
20260506121904 66 233 5.2 12.2 0.00 1.00 0.08 61 1004.0
20260506121804 66 237 5.2 11.3 0.00 1.00 0.08 61 1003.9
20260506121704 66 238 4.3 9.6 0.00 1.00 0.08 63 1003.9
20260506121605 66 237 4.3 9.6 0.00 1.00 0.08 62 1003.8
20260506121504 66 235 5.2 12.2 0.00 1.00 0.08 60 1003.9
20260506121404 66 228 4.3 12.2 0.00 1.00 0.08 62 1003.9
20260506121304 66 229 4.3 12.2 0.00 1.00 0.08 63 1004.1
20260506121211 66 229 4.3 12.2 0.00 1.00 0.08 64 1004.1
20260506121204 66 229 4.3 12.2 0.00 1.00 0.08 64 1004.1
20260506121111 65 230 4.3 12.2 0.00 1.00 0.08 63 1004.0
20260506121105 65 231 4.3 12.2 0.00 1.00 0.08 63 1004.0
20260506120804 65 235 5.2 12.2 0.00 1.00 0.08 62 1004.0
20260506120704 65 235 5.2 12.2 0.00 1.00 0.08 62 1003.9
20260506120611 65 237 5.2 12.2 0.00 1.00 0.08 62 1003.9
20260506120605 65 238 5.2 12.2 0.00 1.00 0.08 64 1003.9
20260506120504 65 238 5.2 11.3 0.00 1.00 0.08 64 1003.9
20260506120304 65 235 5.2 11.3 0.00 1.00 0.08 62 1003.9
20260506120204 65 234 5.2 11.3 0.00 1.00 0.08 62 1003.8
20260506120105 66 231 5.2 11.3 0.00 1.00 0.08 61 1003.9
20260506120005 66 228 6.1 13.0 0.00 1.00 0.08 62 1003.8
20260506115904 66 232 6.1 13.0 0.00 1.00 0.08 61 1003.9
20260506115804 66 236 6.1 14.8 0.00 1.00 0.08 64 1003.9
20260506115704 65 237 6.1 14.8 0.00 1.00 0.08 63 1004.1
20260506115604 65 235 6.1 14.8 0.00 1.00 0.08 62 1004.0
20260506115504 65 233 7.0 14.8 0.00 1.00 0.08 61 1004.0
20260506115411 65 233 7.0 14.8 0.00 1.00 0.08 61 1004.0
20260506115404 65 234 7.0 14.8 0.00 1.00 0.08 61 1004.0
20260506115307 65 233 7.0 14.8 0.00 1.00 0.08 63 1004.0
20260506115111 65 235 7.0 14.8 0.00 1.00 0.08 61 1004.0
20260506115004 65 239 6.1 14.8 0.00 1.00 0.08 62 1003.9
20260506114804 65 229 5.2 12.2 0.00 1.00 0.08 61 1004.1
20260506114705 66 228 5.2 12.2 0.00 1.00 0.08 62 1003.9
20260506114505 66 229 4.3 12.2 0.00 1.00 0.08 61 1004.0
20260506114404 66 233 5.2 12.2 0.00 1.00 0.08 61 1004.0
20260506114304 66 238 5.2 11.3 0.00 1.00 0.08 64 1003.9
20260506114104 66 235 5.2 11.3 0.00 1.00 0.08 62 1003.7
20260506114005 66 231 4.3 11.3 0.00 1.00 0.08 65 1003.9
20260506113904 66 231 4.3 11.3 0.00 1.00 0.08 63 1004.0
20260506113704 66 229 5.2 12.2 0.00 1.00 0.08 63 1003.8
20260506113604 66 221 5.2 12.2 0.00 1.00 0.08 62 1003.9
20260506113304 66 205 5.2 12.2 0.00 1.00 0.08 64 1004.0
20260506113204 65 205 4.3 12.2 0.00 1.00 0.08 64 1003.8
20260506113104 65 207 5.2 12.2 0.00 1.00 0.08 63 1004.0
20260506113004 65 205 5.2 12.2 0.00 1.00 0.08 63 1004.0
20260506112911 65 207 5.2 12.2 0.00 1.00 0.08 62 1004.1
20260506112904 65 208 6.1 12.2 0.00 1.00 0.08 62 1004.1
20260506112804 65 208 6.1 12.2 0.00 1.00 0.08 63 1004.1
20260506112604 65 220 5.2 12.2 0.00 1.00 0.08 63 1003.8
20260506112504 65 225 5.2 12.2 0.00 1.00 0.08 66 1004.1
20260506112404 65 230 5.2 12.2 0.00 1.00 0.08 66 1004.1
20260506112306 65 227 5.2 12.2 0.00 1.00 0.08 65 1004.1
20260506112204 65 227 5.2 12.2 0.00 1.00 0.08 64 1003.9
20260506112104 65 225 5.2 12.2 0.00 1.00 0.08 63 1003.9
20260506112004 65 226 5.2 12.2 0.00 1.00 0.08 63 1003.9
20260506111904 65 222 5.2 12.2 0.00 1.00 0.08 63 1004.0
20260506111811 65 220 5.2 12.2 0.00 1.00 0.08 63 1004.0
20260506111704 66 216 5.2 12.2 0.00 1.00 0.08 63 1004.1
20260506111504 66 212 4.3 9.6 0.00 1.00 0.08 61 1004.2
20260506111404 66 212 4.3 9.6 0.00 1.00 0.08 61 1004.1
20260506111304 67 214 4.3 8.7 0.00 1.00 0.08 60 1004.1
20260506111204 67 215 4.3 8.7 0.00 1.00 0.08 60 1003.9
20260506111104 67 214 4.3 8.7 0.00 1.00 0.08 60 1004.1
20260506111004 67 215 4.3 11.3 0.00 1.00 0.08 62 1004.1
20260506110904 67 215 5.2 11.3 0.00 1.00 0.08 62 1004.0
20260506110804 67 214 5.2 11.3 0.00 1.00 0.08 62 1004.0
20260506110704 67 214 5.2 14.8 0.00 1.00 0.08 63 1004.1
20260506110604 67 213 5.2 14.8 0.00 1.00 0.08 62 1004.2
20260506110504 67 212 6.1 14.8 0.00 1.00 0.08 61 1004.1
20260506110404 67 212 6.1 14.8 0.00 1.00 0.08 62 1004.1
20260506110304 67 211 6.1 14.8 0.00 1.00 0.08 61 1004.1
20260506110204 67 209 6.1 14.8 0.00 1.00 0.08 61 1004.2
20260506110111 67 210 7.0 14.8 0.00 1.00 0.08 61 1004.0
20260506110104 67 211 7.0 14.8 0.00 1.00 0.08 61 1004.0
20260506110005 67 211 7.0 14.8 0.00 1.00 0.08 61 1004.1
20260506105804 66 213 7.0 14.8 0.00 1.00 0.08 61 1004.1
20260506105704 66 214 6.1 14.8 0.00 1.00 0.08 63 1003.8
20260506105604 66 213 6.1 14.8 0.00 1.00 0.08 63 1003.9
20260506105504 66 215 6.1 14.8 0.00 1.00 0.08 63 1004.0
20260506105404 65 217 6.1 14.8 0.00 1.00 0.08 62 1004.0
20260506105305 65 217 6.1 14.8 0.00 1.00 0.08 63 1004.0
20260506105204 65 219 5.2 14.8 0.00 1.00 0.08 63 1004.0
20260506105104 65 217 5.2 14.8 0.00 1.00 0.08 62 1004.1
20260506105011 65 218 5.2 14.8 0.00 1.00 0.08 63 1003.9
20260506105004 65 219 5.2 14.8 0.00 1.00 0.08 63 1003.9
20260506104911 65 219 4.3 13.0 0.00 1.00 0.08 62 1003.9
20260506104904 65 220 4.3 11.3 0.00 1.00 0.08 62 1003.9
20260506104604 65 218 5.2 12.2 0.00 1.00 0.08 63 1003.9
20260506104504 65 215 5.2 12.2 0.00 1.00 0.08 62 1003.9
20260506104404 65 214 5.2 12.2 0.00 1.00 0.08 63 1004.2
20260506104305 65 215 5.2 16.5 0.00 1.00 0.08 61 1004.1
20260506104204 65 213 5.2 16.5 0.00 1.00 0.08 64 1004.0
20260506104104 65 213 5.2 16.5 0.00 1.00 0.08 60 1004.0
20260506103904 65 212 5.2 16.5 0.00 1.00 0.08 62 1004.0
20260506103804 65 215 5.2 16.5 0.00 1.00 0.08 65 1003.8
20260506103704 65 213 5.2 16.5 0.00 1.00 0.08 64 1004.0
20260506103604 65 213 5.2 16.5 0.00 1.00 0.08 62 1004.1
20260506103504 65 216 5.2 16.5 0.00 1.00 0.08 64 1004.0
20260506103404 65 216 5.2 16.5 0.00 1.00 0.08 65 1004.2
20260506103304 65 213 5.2 12.2 0.00 1.00 0.08 65 1003.9
20260506103204 64 212 5.2 12.2 0.00 1.00 0.08 65 1003.9
20260506103104 64 211 6.1 13.9 0.00 1.00 0.08 64 1004.3
20260506103004 64 211 6.1 13.9 0.00 1.00 0.08 64 1004.1
20260506102904 64 209 6.1 13.9 0.00 1.00 0.08 64 1004.3
20260506102804 64 206 6.1 13.9 0.00 1.00 0.08 65 1004.3
20260506102704 64 208 6.1 18.2 0.00 1.00 0.08 66 1004.3
20260506102611 64 207 6.1 18.2 0.00 1.00 0.08 66 1004.4
20260506102604 64 207 6.1 18.2 0.00 1.00 0.08 66 1004.4
20260506102504 64 202 6.1 18.2 0.00 1.00 0.08 67 1004.5
20260506102204 64 200 7.0 18.2 0.00 1.00 0.08 67 1004.4
20260506102104 64 197 7.0 19.1 0.00 1.00 0.08 68 1004.5
20260506102004 64 197 7.0 19.1 0.00 1.00 0.08 65 1004.4
20260506101904 64 196 7.8 19.1 0.00 1.00 0.08 66 1004.4
20260506101811 64 196 7.8 19.1 0.00 1.00 0.08 66 1004.4
20260506101804 64 196 7.8 19.1 0.00 1.00 0.08 66 1004.4
20260506101704 64 194 7.8 19.1 0.00 1.00 0.08 66 1004.5
20260506101504 64 198 7.8 19.1 0.00 1.00 0.08 67 1004.5
20260506101411 64 199 8.7 19.1 0.00 1.00 0.08 67 1004.4
20260506101404 64 199 8.7 19.1 0.00 1.00 0.08 68 1004.4
20260506101304 64 200 8.7 19.1 0.00 1.00 0.08 68 1004.4
20260506101104 64 202 8.7 19.1 0.00 1.00 0.08 66 1004.3
20260506101004 64 205 8.7 14.8 0.00 1.00 0.08 66 1004.3
20260506100904 64 205 8.7 14.8 0.00 1.00 0.08 66 1004.3
20260506100804 64 202 7.8 14.8 0.00 1.00 0.08 67 1004.3
20260506100704 64 202 7.8 14.8 0.00 1.00 0.08 66 1004.4
20260506100504 64 199 7.0 14.8 0.00 1.00 0.08 66 1004.5
20260506100404 64 200 7.0 14.8 0.00 1.00 0.08 67 1004.4
20260506100304 64 197 6.1 13.0 0.00 1.00 0.08 67 1004.3
20260506100005 64 195 6.1 12.2 0.00 1.00 0.08 68 1004.3
20260506095904 64 195 5.2 9.6 0.00 1.00 0.08 68 1004.4
20260506095804 64 198 5.2 9.6 0.00 1.00 0.08 68 1004.5
20260506095604 64 206 5.2 11.3 0.00 1.00 0.08 67 1004.3
20260506095505 64 208 5.2 11.3 0.00 1.00 0.08 68 1004.5
20260506095404 64 213 5.2 11.3 0.00 1.00 0.08 68 1004.4
20260506095305 64 216 5.2 11.3 0.00 1.00 0.08 67 1004.3
20260506095204 64 220 5.2 13.0 0.00 1.00 0.08 69 1004.3
20260506095104 64 220 4.3 13.0 0.00 1.00 0.08 69 1004.3
20260506095004 64 222 4.3 13.0 0.00 1.00 0.08 69 1004.4
20260506094904 63 225 5.2 13.0 0.00 1.00 0.08 68 1004.3
20260506094811 63 226 5.2 13.0 0.00 1.00 0.08 69 1004.4
20260506094804 63 226 5.2 13.0 0.00 1.00 0.08 69 1004.4
20260506094704 63 226 5.2 13.0 0.00 1.00 0.08 68 1004.4
20260506094504 63 223 5.2 13.0 0.00 1.00 0.08 71 1004.5
20260506094404 62 222 5.2 13.0 0.00 1.00 0.08 71 1004.3
20260506094304 62 219 5.2 13.0 0.00 1.00 0.08 70 1004.5
20260506094104 62 214 5.2 13.0 0.00 1.00 0.08 69 1004.2
20260506094005 62 216 5.2 13.0 0.00 1.00 0.08 70 1004.2
20260506093904 62 219 5.2 13.0 0.00 1.00 0.08 70 1004.3
20260506093804 62 220 5.2 13.0 0.00 1.00 0.08 72 1004.2
20260506093704 61 221 4.3 13.0 0.00 1.00 0.08 72 1004.3
20260506093604 61 217 5.2 12.2 0.00 1.00 0.08 72 1004.2
20260506093504 61 220 5.2 12.2 0.00 1.00 0.08 72 1004.3
20260506093404 60 220 6.1 15.6 0.00 1.00 0.08 72 1004.2
20260506093311 61 222 6.1 15.6 0.00 1.00 0.08 72 1004.1
20260506093304 61 224 6.1 15.6 0.00 1.00 0.08 72 1004.1
20260506093204 60 228 7.0 15.6 0.00 1.00 0.08 73 1004.2
20260506093004 61 233 7.0 15.6 0.00 1.00 0.08 71 1004.1
20260506092904 60 231 7.8 15.6 0.00 1.00 0.08 71 1004.1
20260506092804 61 231 7.8 18.2 0.00 1.00 0.08 71 1004.1
20260506092704 60 230 8.7 18.2 0.00 1.00 0.08 70 1004.0
20260506092604 60 232 8.7 18.2 0.00 1.00 0.08 70 1004.1
20260506092504 60 234 8.7 18.2 0.00 1.00 0.08 70 1004.2
20260506092404 60 237 7.8 18.2 0.00 1.00 0.08 70 1004.0
20260506092306 60 235 7.8 18.2 0.00 1.00 0.08 71 1004.1
20260506092204 60 234 7.8 18.2 0.00 1.00 0.08 72 1004.3
20260506092104 60 234 7.8 18.2 0.00 1.00 0.08 72 1004.0
20260506092004 60 229 8.7 18.2 0.00 1.00 0.08 70 1004.0
20260506091904 61 228 8.7 18.2 0.00 1.00 0.08 70 1004.0
20260506091804 61 227 7.8 18.2 0.00 1.00 0.08 70 1004.0
20260506091704 61 227 7.8 16.5 0.00 1.00 0.08 72 1004.2
20260506091605 61 226 7.0 16.5 0.00 1.00 0.08 70 1004.1
20260506091504 61 225 7.0 16.5 0.00 1.00 0.08 69 1004.0
20260506091404 62 222 7.0 16.5 0.00 1.00 0.08 70 1004.0
20260506091304 62 224 7.0 16.5 0.00 1.00 0.08 69 1004.2
20260506091104 62 222 7.0 16.5 0.00 1.00 0.08 70 1004.0
20260506091004 62 224 7.0 13.0 0.00 1.00 0.08 70 1003.9
20260506090904 61 224 7.0 13.0 0.00 1.00 0.08 69 1004.1
20260506090804 61 221 7.8 14.8 0.00 1.00 0.08 69 1004.0
20260506090704 61 222 7.0 14.8 0.00 1.00 0.08 72 1004.0
20260506090611 61 224 7.8 14.8 0.00 1.00 0.08 71 1003.8
20260506090504 61 221 7.8 14.8 0.00 1.00 0.08 71 1003.9
20260506090312 61 218 7.0 14.8 0.00 1.00 0.08 70 1004.0
20260506090304 61 217 7.0 14.8 0.00 1.00 0.08 70 1004.0
20260506090204 61 215 7.0 14.8 0.00 1.00 0.08 69 1004.0
20260506090005 61 215 6.1 14.8 0.00 1.00 0.08 69 1004.1
20260506085904 61 218 7.0 14.8 0.00 1.00 0.08 71 1003.8
20260506085804 61 222 7.0 13.0 0.00 1.00 0.08 70 1003.8
20260506085704 61 223 7.0 13.9 0.00 1.00 0.08 71 1003.8
20260506085611 61 223 7.0 13.9 0.00 1.00 0.08 71 1003.9
20260506085604 61 221 7.0 13.9 0.00 1.00 0.08 71 1003.9
20260506085504 61 218 7.0 13.9 0.00 1.00 0.08 71 1003.7
20260506085413 61 218 7.0 13.9 0.00 1.00 0.08 71 1003.8
20260506085306 61 219 7.8 13.9 0.00 1.00 0.08 71 1003.9
20260506085004 60 220 8.7 13.9 0.00 1.00 0.08 71 1003.9
20260506084904 60 219 8.7 13.9 0.00 1.00 0.08 71 1004.0
20260506084805 60 223 8.7 13.9 0.00 1.00 0.08 72 1003.8
20260506084712 60 224 8.7 13.9 0.00 1.00 0.08 72 1004.0
20260506084705 60 224 8.7 13.9 0.00 1.00 0.08 72 1004.0
20260506084604 60 225 8.7 13.9 0.00 1.00 0.08 71 1003.9
20260506084406 60 229 8.7 16.5 0.00 1.00 0.08 73 1004.0
20260506084304 60 229 8.7 16.5 0.00 1.00 0.08 73 1003.9
20260506084204 60 227 8.7 16.5 0.00 1.00 0.08 73 1003.8
20260506084104 60 227 8.7 16.5 0.00 1.00 0.08 72 1003.9
20260506084004 60 225 7.8 16.5 0.00 1.00 0.08 73 1003.8
20260506083904 60 224 7.8 16.5 0.00 1.00 0.08 72 1003.8
20260506083704 60 222 8.7 19.1 0.00 1.00 0.08 74 1003.7
20260506083605 60 222 8.7 19.1 0.00 1.00 0.08 73 1003.9
20260506083404 60 219 8.7 19.1 0.00 1.00 0.08 75 1003.8
20260506083304 60 223 8.7 19.1 0.00 1.00 0.08 74 1003.6
20260506083204 60 227 8.7 19.1 0.00 1.00 0.08 76 1003.6
20260506083104 60 229 9.6 19.1 0.00 1.00 0.08 75 1003.6
20260506082904 60 232 10.4 19.1 0.00 1.00 0.08 75 1003.6
20260506082804 59 230 10.4 19.1 0.00 1.00 0.08 73 1003.8
20260506082704 59 230 10.4 18.2 0.00 1.00 0.08 74 1003.9
20260506082604 59 232 9.6 18.2 0.00 1.00 0.08 76 1003.8
20260506082504 59 236 10.4 20.0 0.00 1.00 0.08 76 1003.7
20260506082404 59 238 10.4 20.0 0.00 1.00 0.08 75 1003.6
20260506082305 59 233 11.3 20.0 0.00 1.00 0.08 75 1003.6
20260506082204 59 231 11.3 20.0 0.00 1.00 0.08 75 1003.5
20260506082104 59 231 11.3 20.0 0.00 1.00 0.08 75 1003.5
20260506082004 59 230 11.3 21.7 0.00 1.00 0.08 76 1003.6
20260506081904 59 228 11.3 21.7 0.00 1.00 0.08 75 1003.6
20260506081804 59 227 11.3 21.7 0.00 1.00 0.08 76 1003.7
20260506081604 59 224 11.3 21.7 0.00 1.00 0.08 76 1003.5
20260506081512 58 222 11.3 21.7 0.00 1.00 0.08 76 1003.5
20260506081504 58 221 11.3 21.7 0.00 1.00 0.08 76 1003.5
20260506081404 58 219 11.3 21.7 0.00 1.00 0.08 77 1003.5
20260506081211 58 219 9.6 21.7 0.00 1.00 0.08 78 1003.6
20260506081204 58 219 9.6 21.7 0.00 1.00 0.08 78 1003.6
20260506081104 58 216 9.6 21.7 0.00 1.00 0.08 79 1003.5
20260506081011 58 218 8.7 19.1 0.00 1.00 0.08 79 1003.3
20260506080904 58 218 8.7 19.1 0.00 1.00 0.08 78 1003.5
20260506080604 57 223 8.7 16.5 0.00 1.00 0.08 79 1003.3
20260506080504 57 221 8.7 19.1 0.00 1.00 0.08 79 1003.3
20260506080404 57 217 9.6 19.1 0.00 1.00 0.08 79 1003.6
20260506080204 57 218 10.4 19.1 0.00 1.00 0.08 77 1003.5
20260506080106 57 219 10.4 19.1 0.00 1.00 0.08 78 1003.3
20260506073504 57 239 7.8 20.0 0.00 1.00 0.08 80 1003.2
20260506073404 57 242 6.1 19.1 0.00 1.00 0.08 80 1003.3
20260506073304 57 240 6.1 16.5 0.00 1.00 0.08 80 1003.3
20260506073204 57 241 6.1 16.5 0.00 1.00 0.08 79 1003.3
20260506073104 57 243 5.2 16.5 0.00 1.00 0.08 80 1003.5
20260506073004 57 253 4.3 16.5 0.00 1.00 0.08 80 1003.5
20260506072904 57 261 4.3 12.2 0.00 1.00 0.08 80 1003.3
20260506072804 57 257 4.3 12.2 0.00 1.00 0.08 79 1003.3
20260506072704 57 261 3.5 12.2 0.00 1.00 0.08 81 1003.7
20260506072504 56 260 3.5 9.6 0.00 1.00 0.08 82 1003.6
20260506072404 56 257 3.5 9.6 0.00 1.00 0.08 81 1003.5
20260506072306 56 258 4.3 9.6 0.00 1.00 0.08 82 1003.7
20260506072204 56 257 4.3 18.2 0.00 1.00 0.08 82 1003.6
20260506072004 56 245 5.2 18.2 0.00 1.00 0.08 81 1003.6
20260506071904 56 239 5.2 18.2 0.00 1.00 0.08 82 1003.5
20260506071804 56 239 5.2 18.2 0.00 1.00 0.08 82 1003.6
20260506071704 56 235 5.2 18.2 0.00 1.00 0.08 82 1003.3
20260506071605 56 232 5.2 18.2 0.00 1.00 0.08 81 1003.6
20260506071512 56 229 5.2 18.2 0.00 1.00 0.08 82 1003.6
20260506071504 56 228 5.2 18.2 0.00 1.00 0.08 82 1003.6
20260506071404 56 226 5.2 18.2 0.00 1.00 0.08 81 1003.5
20260506071204 56 215 5.2 14.8 0.00 1.00 0.08 82 1003.6
20260506071104 56 214 4.3 13.9 0.00 1.00 0.08 82 1003.8
20260506071004 56 213 4.3 13.9 0.00 1.00 0.08 82 1003.8
20260506070905 56 213 4.3 13.9 0.00 1.00 0.08 83 1003.6
20260506070805 56 211 4.3 13.0 0.00 1.00 0.08 83 1003.8
20260506070704 56 221 4.3 13.0 0.00 1.00 0.08 83 1003.5
20260506070604 56 224 4.3 13.0 0.00 1.00 0.08 83 1003.7
20260506070504 56 223 3.5 9.6 0.00 1.00 0.08 83 1003.6
20260506070404 56 222 3.5 9.6 0.00 1.00 0.08 83 1003.7
20260506070305 56 222 3.5 9.6 0.00 1.00 0.08 83 1003.8
20260506070206 56 224 2.6 9.6 0.00 1.00 0.08 83 1003.7
20260506070105 56 225 2.6 9.6 0.00 1.00 0.08 83 1003.8
20260506062504 55 249 3.5 11.3 0.00 1.00 0.08 85 1003.7
20260506062306 55 256 2.6 11.3 0.00 1.00 0.08 85 1003.6
20260506062205 55 253 2.6 11.3 0.00 1.00 0.08 86 1003.7
20260506062104 55 248 2.6 11.3 0.00 1.00 0.08 85 1003.7
20260506062004 55 250 2.6 11.3 0.00 1.00 0.08 85 1003.5
20260506061912 55 245 1.7 11.3 0.00 1.00 0.08 86 1003.6
20260506061904 55 242 1.7 11.3 0.00 1.00 0.08 86 1003.6
20260506061804 55 234 1.7 8.7 0.00 1.00 0.08 86 1003.6
20260506061604 55 260 1.7 5.2 0.00 1.00 0.08 87 1003.7
20260506061504 55 256 1.7 5.2 0.00 1.00 0.08 87 1003.6
20260506061404 55 249 1.7 5.2 0.00 1.00 0.08 87 1003.6
20260506061312 55 235 1.7 7.0 0.00 1.00 0.08 87 1003.5
20260506061304 55 231 1.7 7.0 0.00 1.00 0.08 87 1003.5
20260506061205 55 225 1.7 7.8 0.00 1.00 0.08 87 1003.6
20260506061004 55 241 2.6 7.8 0.00 1.00 0.08 87 1003.8
20260506060904 54 250 3.5 7.8 0.00 1.00 0.08 86 1003.5
20260506060804 54 264 3.5 7.8 0.00 1.00 0.08 86 1003.6
20260506060704 54 265 3.5 7.8 0.00 1.00 0.08 86 1003.6
20260506060604 54 259 3.5 7.8 0.00 1.00 0.08 86 1003.5
20260506060504 54 258 3.5 7.8 0.00 1.00 0.08 86 1003.6
20260506060404 54 254 3.5 7.8 0.00 1.00 0.08 86 1003.6
20260506060312 54 254 3.5 7.8 0.00 1.00 0.08 86 1003.5
20260506060304 54 255 3.5 7.8 0.00 1.00 0.08 86 1003.5
20260506060204 54 262 3.5 7.8 0.00 1.00 0.08 86 1003.6
20260506060111 54 265 3.5 7.8 0.00 1.00 0.08 87 1003.5
20260506051404 53 249 4.3 7.8 0.00 1.00 0.08 90 1003.9
20260506051304 53 248 4.3 7.8 0.00 1.00 0.08 90 1003.8
20260506051204 53 248 4.3 7.8 0.00 1.00 0.08 90 1003.7
20260506051104 53 246 4.3 7.8 0.00 1.00 0.08 91 1003.7
20260506050904 53 245 4.3 7.8 0.00 1.00 0.08 91 1003.8
20260506050804 53 244 4.3 7.0 0.00 1.00 0.08 91 1003.7
20260506050604 53 243 4.3 7.0 0.00 1.00 0.08 91 1003.6
20260506050505 53 243 4.3 7.0 0.00 1.00 0.08 91 1003.7
20260506050405 53 240 4.3 7.0 0.00 1.00 0.08 91 1003.8
20260506050311 53 239 4.3 7.0 0.00 1.00 0.08 91 1003.8
20260506050204 53 235 4.3 7.0 0.00 1.00 0.08 91 1003.9
20260506044904 53 228 2.6 7.0 0.00 1.01 0.08 92 1003.7
20260506044804 53 224 2.6 6.1 0.00 1.01 0.08 92 1003.8
20260506044711 53 222 1.7 5.2 0.00 1.01 0.08 92 1003.7
20260506044704 53 221 1.7 5.2 0.00 1.01 0.08 92 1003.7
20260506044611 53 218 1.7 6.1 0.00 1.01 0.08 92 1003.8
20260506044604 53 217 1.7 6.1 0.00 1.01 0.08 92 1003.8
20260506044304 52 207 1.7 6.1 0.00 1.01 0.08 92 1003.7
20260506044204 52 206 1.7 6.1 0.00 1.01 0.08 92 1003.5
20260506044104 52 206 1.7 6.1 0.00 1.01 0.08 92 1003.9
20260506044004 52 205 1.7 6.1 0.00 1.01 0.08 92 1003.7
20260506043904 52 204 1.7 6.1 0.00 1.01 0.08 92 1003.7
20260506043804 52 205 1.7 6.1 0.00 1.01 0.08 92 1003.7
20260506043704 52 206 1.7 6.1 0.00 1.01 0.08 92 1003.7
20260506043612 52 208 1.7 3.5 0.00 1.01 0.08 92 1003.6
20260506043505 52 207 1.7 5.2 0.00 1.01 0.08 92 1003.5
20260506043412 52 206 2.6 5.2 0.00 1.01 0.08 92 1003.7
20260506043304 52 204 1.7 5.2 0.00 1.01 0.08 92 1003.7
20260506043104 52 202 2.6 6.1 0.00 1.01 0.08 92 1003.7
20260506043004 52 204 2.6 6.1 0.00 1.01 0.08 92 1003.6
20260506042905 52 205 2.6 6.1 0.00 1.01 0.08 92 1003.5
20260506042804 52 204 2.6 6.1 0.00 1.01 0.08 92 1003.6
20260506042704 52 202 2.6 6.1 0.00 1.01 0.08 92 1003.7
20260506042612 52 198 2.6 6.1 0.00 1.01 0.08 92 1003.6
20260506042604 52 197 1.7 6.1 0.00 1.01 0.08 92 1003.6
20260506042504 52 196 1.7 6.1 0.00 1.01 0.08 92 1003.3
20260506042305 52 202 1.7 6.1 0.00 1.01 0.08 92 1003.5
20260506042204 52 203 1.7 5.2 0.00 1.01 0.08 92 1003.3
20260506042104 52 206 0.9 3.5 0.00 1.01 0.08 92 1003.6
20260506042004 52 204 0.9 3.5 0.00 1.01 0.08 92 1003.6
20260506041904 52 203 0.9 2.6 0.00 1.01 0.08 92 1003.6
20260506041804 52 201 0.0 2.6 0.00 1.01 0.08 92 1003.5
20260506041704 52 204 0.0 1.7 0.00 1.01 0.08 92 1003.7
20260506041605 52 204 0.0 1.7 0.00 1.01 0.08 92 1003.6
20260506041404 52 196 0.0 1.7 0.00 1.01 0.08 92 1003.6
20260506041304 52 135 0.0 0.9 0.00 1.01 0.08 92 1003.3
20260506041204 52 135 0.0 0.9 0.00 1.01 0.08 92 1003.5
20260506041004 52 135 0.0 0.9 0.00 1.01 0.08 92 1003.5
20260506040904 52 135 0.0 0.9 0.00 1.01 0.08 92 1003.3
20260506040804 52 135 0.0 0.9 0.00 1.01 0.08 92 1003.5
20260506040704 52 135 0.0 0.9 0.00 1.01 0.08 92 1003.3
20260506040604 52 135 0.0 0.9 0.00 1.01 0.08 92 1003.5
20260506040505 52 0 0.0 0.0 0.00 1.01 0.07 92 1003.3
20260506040404 52 0 0.0 0.0 0.00 1.01 0.07 92 1003.5
20260506040311 52 0 0.0 0.0 0.00 1.01 0.07 92 1003.6
20260506040304 52 0 0.0 0.0 0.00 1.01 0.07 92 1003.6
20260506040204 52 0 0.0 0.0 0.00 1.01 0.07 92 1003.3
20260506040006 52 0 0.0 0.0 0.00 1.01 0.07 92 1003.1
20260506035904 52 0 0.0 0.0 0.00 1.01 0.07 92 1003.5
20260506035805 52 0 0.0 0.0 0.00 1.01 0.07 91 1003.5
20260506035704 52 0 0.0 0.0 0.00 1.01 0.07 91 1003.3
20260506035612 52 0 0.0 0.0 0.00 1.01 0.07 91 1003.3
20260506035605 52 0 0.0 0.0 0.00 1.01 0.07 91 1003.3
20260506035505 52 0 0.0 0.0 0.00 1.01 0.07 91 1003.6
20260506035306 52 0 0.0 0.0 0.00 1.01 0.07 91 1003.2
20260506035204 52 0 0.0 0.0 0.00 1.01 0.07 91 1003.5
20260506035105 52 0 0.0 0.0 0.00 1.01 0.07 91 1003.6
20260506035004 52 0 0.0 0.0 0.00 1.01 0.07 92 1003.5
20260506034912 52 0 0.0 0.0 0.00 1.01 0.07 92 1003.6
20260506034905 52 0 0.0 0.0 0.00 1.01 0.07 91 1003.6
20260506034804 52 0 0.0 0.0 0.00 1.01 0.07 91 1003.3
20260506034711 52 0 0.0 0.0 0.00 1.01 0.07 92 1003.6
20260506034604 52 0 0.0 0.0 0.00 1.01 0.07 91 1003.6
20260506034512 52 0 0.0 0.0 0.00 1.01 0.07 92 1003.5
20260506034404 52 0 0.0 0.0 0.00 1.01 0.07 91 1003.5
20260506034204 52 0 0.0 0.0 0.00 1.01 0.07 91 1003.6
20260506034104 52 0 0.0 0.0 0.00 1.01 0.07 91 1003.3
20260506034005 52 0 0.0 0.0 0.00 1.01 0.07 91 1003.6
20260506033804 52 0 0.0 0.0 0.00 1.01 0.07 91 1003.5
20260506033704 52 0 0.0 0.0 0.00 1.01 0.07 91 1003.3
20260506033604 52 0 0.0 0.0 0.00 1.01 0.07 91 1003.5
20260506033304 52 0 0.0 0.0 0.00 1.01 0.07 91 1003.6
20260506033204 52 0 0.0 0.0 0.00 1.01 0.07 91 1003.6
20260506033104 52 0 0.0 0.0 0.00 1.01 0.07 91 1003.5
20260506032904 52 0 0.0 0.0 0.00 1.01 0.07 91 1003.6
20260506032804 52 0 0.0 0.0 0.00 1.01 0.07 91 1003.6
20260506032705 52 0 0.0 0.0 0.00 1.01 0.07 91 1003.5
20260506032605 52 0 0.0 0.0 0.00 1.01 0.07 91 1003.5
20260506032505 52 0 0.0 0.0 0.00 1.01 0.07 91 1003.6
20260506032404 52 0 0.0 0.0 0.00 1.01 0.07 91 1003.6
20260506032306 52 0 0.0 0.0 0.00 1.01 0.07 91 1003.6
20260506032204 52 0 0.0 0.0 0.00 1.01 0.07 91 1003.6
20260506032105 52 0 0.0 0.0 0.00 1.01 0.07 91 1003.7
20260506032006 52 0 0.0 0.0 0.00 1.01 0.07 91 1003.8
20260506031905 52 0 0.0 0.0 0.00 1.02 0.07 91 1003.7
20260506031804 52 0 0.0 0.0 0.00 1.02 0.07 91 1003.6
20260506031705 52 0 0.0 0.0 0.00 1.02 0.07 91 1003.8
20260506031605 52 0 0.0 0.0 0.00 1.02 0.07 91 1003.6
20260506031504 52 0 0.0 0.0 0.00 1.02 0.07 91 1003.7
20260506031405 52 0 0.0 0.0 0.00 1.02 0.07 91 1003.7
20260506031305 52 0 0.0 0.0 0.00 1.02 0.07 91 1003.3
20260506031205 52 0 0.0 0.0 0.00 1.02 0.07 92 1003.6
20260506031104 52 0 0.0 0.0 0.00 1.02 0.07 91 1003.3
20260506030904 52 0 0.0 0.0 0.00 1.02 0.07 92 1003.6
20260506030804 52 0 0.0 0.0 0.00 1.02 0.07 92 1003.8
20260506030604 52 0 0.0 0.0 0.00 1.02 0.07 92 1003.6
20260506030506 52 0 0.0 0.0 0.00 1.02 0.07 92 1003.8
20260506030405 52 0 0.0 0.0 0.00 1.02 0.07 92 1003.7
20260506030304 52 0 0.0 0.0 0.00 1.02 0.07 92 1003.7
20260506030204 52 0 0.0 0.0 0.00 1.02 0.07 92 1003.7
20260506030105 52 0 0.0 0.0 0.00 1.02 0.07 92 1003.8
20260506025904 52 0 0.0 0.0 0.00 1.02 0.07 92 1003.8
20260506025804 52 0 0.0 0.0 0.00 1.02 0.07 92 1003.7
20260506025704 52 0 0.0 0.0 0.00 1.02 0.07 92 1003.7
20260506025604 52 0 0.0 0.0 0.00 1.02 0.07 92 1003.8
20260506025504 52 0 0.0 0.0 0.00 1.02 0.07 92 1003.9
20260506025305 52 0 0.0 0.0 0.00 1.02 0.07 92 1003.7
20260506025204 52 0 0.0 0.0 0.00 1.02 0.07 92 1003.8
20260506025104 52 0 0.0 0.0 0.00 1.02 0.07 92 1003.6
20260506025004 52 0 0.0 0.0 0.00 1.02 0.07 92 1003.9
20260506024904 52 0 0.0 0.0 0.00 1.02 0.07 92 1003.8
20260506024804 52 0 0.0 0.0 0.00 1.02 0.07 92 1003.7
20260506024704 52 0 0.0 0.0 0.00 1.02 0.07 92 1003.7
20260506024604 52 0 0.0 0.0 0.00 1.02 0.07 92 1003.8
20260506024504 52 0 0.0 0.0 0.00 1.02 0.07 92 1003.8
20260506024404 52 0 0.0 0.0 0.00 1.02 0.07 92 1003.9
20260506024304 52 0 0.0 0.0 0.00 1.02 0.07 92 1004.1
20260506024204 52 0 0.0 0.0 0.00 1.02 0.07 92 1003.9
20260506024104 52 0 0.0 0.0 0.00 1.02 0.07 92 1004.0
20260506024004 52 0 0.0 0.0 0.00 1.02 0.07 92 1003.9
20260506023904 52 0 0.0 0.0 0.00 1.02 0.07 92 1004.1
20260506023804 52 0 0.0 0.0 0.00 1.02 0.07 92 1004.0
20260506023704 52 0 0.0 0.0 0.00 1.02 0.07 92 1003.9
20260506023604 52 0 0.0 0.0 0.00 1.02 0.07 92 1003.9
20260506023504 52 0 0.0 0.0 0.00 1.02 0.07 92 1004.2
20260506023404 52 0 0.0 0.0 0.00 1.02 0.07 92 1004.0
20260506023304 52 0 0.0 0.0 0.00 1.02 0.07 92 1003.9
20260506023104 52 0 0.0 0.0 0.00 1.02 0.07 92 1004.1
20260506023005 52 0 0.0 0.0 0.00 1.03 0.07 92 1004.0
20260506022904 52 0 0.0 0.0 0.00 1.03 0.07 92 1004.2
20260506022804 52 0 0.0 0.0 0.00 1.03 0.07 92 1004.0
20260506022704 52 0 0.0 0.0 0.00 1.03 0.07 92 1004.2
20260506022604 52 0 0.0 0.0 0.00 1.03 0.07 92 1004.0
20260506022404 52 0 0.0 0.0 0.00 1.03 0.07 92 1003.9
20260506022306 52 0 0.0 0.0 0.00 1.03 0.07 92 1004.0
20260506022204 52 0 0.0 0.0 0.00 1.03 0.07 92 1004.0
20260506022104 52 0 0.0 0.0 0.00 1.03 0.07 92 1004.0
20260506022005 52 0 0.0 0.0 0.00 1.03 0.07 92 1004.1
20260506021904 52 0 0.0 0.0 0.00 1.03 0.07 92 1004.0
20260506021813 52 0 0.0 0.0 0.00 1.03 0.07 92 1004.0
20260506021704 52 0 0.0 0.0 0.00 1.03 0.07 92 1004.2
20260506021612 52 0 0.0 0.0 0.00 1.03 0.07 92 1004.0
20260506021504 52 0 0.0 0.0 0.00 1.03 0.07 92 1004.1
20260506021204 52 266 0.0 1.7 0.00 1.03 0.07 92 1004.1
20260506021104 52 260 0.0 1.7 0.00 1.03 0.07 92 1004.1
20260506021004 52 256 0.0 1.7 0.00 1.03 0.07 92 1004.0
20260506020813 52 250 0.9 1.7 0.00 1.03 0.07 92 1004.3
20260506020804 52 249 0.9 1.7 0.00 1.03 0.07 92 1004.3
20260506020704 52 243 0.9 2.6 0.00 1.03 0.07 92 1004.1
20260506020504 52 241 0.9 2.6 0.00 1.03 0.07 92 1004.2
20260506020404 52 239 0.9 2.6 0.00 1.03 0.07 92 1004.1
20260506020304 52 235 0.9 2.6 0.00 1.03 0.07 92 1004.1
20260506020204 52 230 0.9 2.6 0.00 1.03 0.07 92 1004.2
20260506020104 52 231 0.9 3.5 0.00 1.03 0.07 92 1004.3
20260506020005 52 232 0.9 3.5 0.00 1.03 0.07 92 1004.2
20260506015904 52 231 0.9 3.5 0.00 1.03 0.07 92 1004.1
20260506015804 52 233 0.9 3.5 0.00 1.03 0.07 92 1004.1
20260506015604 52 238 0.9 3.5 0.00 1.03 0.07 92 1004.0
20260506015505 52 239 0.9 3.5 0.00 1.03 0.07 92 1004.2
20260506015404 52 241 0.9 3.5 0.00 1.03 0.07 92 1004.0
20260506015311 52 244 0.9 3.5 0.00 1.03 0.07 92 1004.0
20260506015306 52 245 0.9 3.5 0.00 1.03 0.07 92 1004.0
20260506015204 52 250 0.9 3.5 0.00 1.03 0.07 92 1004.0
20260506015111 52 253 0.9 3.5 0.00 1.03 0.07 92 1004.2
20260506015004 52 250 0.0 3.5 0.00 1.03 0.07 92 1004.0
20260506014704 52 257 0.0 2.6 0.00 1.03 0.07 92 1004.1
20260506014604 52 256 0.0 2.6 0.00 1.03 0.07 92 1004.1
20260506014504 52 256 0.0 2.6 0.00 1.03 0.07 92 1004.1
20260506014404 52 256 0.0 2.6 0.00 1.03 0.07 92 1004.2
20260506014304 52 256 0.0 2.6 0.00 1.03 0.07 92 1004.1
20260506014204 52 256 0.0 2.6 0.00 1.03 0.07 92 1004.1
20260506014105 52 253 0.0 2.6 0.00 1.03 0.07 92 1004.3
20260506014004 52 0 0.0 0.0 0.00 1.03 0.07 92 1004.0
20260506013904 52 0 0.0 0.0 0.00 1.03 0.07 92 1004.1
20260506013804 52 0 0.0 0.0 0.00 1.03 0.07 92 1004.2
20260506013704 52 0 0.0 0.0 0.00 1.03 0.07 92 1004.2
20260506013404 52 0 0.0 0.0 0.00 1.03 0.07 92 1004.1
20260506013304 52 176 0.0 0.9 0.00 1.03 0.07 92 1004.2
20260506013204 52 176 0.0 0.9 0.00 1.03 0.07 92 1004.1
20260506013104 52 176 0.0 0.9 0.00 1.03 0.07 92 1004.4
20260506013004 52 188 0.0 0.9 0.00 1.03 0.07 92 1004.3
20260506012904 52 189 0.0 0.9 0.00 1.03 0.07 92 1004.3
20260506012804 52 189 0.0 0.9 0.00 1.03 0.07 92 1004.2
20260506012505 52 189 0.0 0.9 0.00 1.03 0.07 92 1004.4
20260506012404 52 189 0.0 0.9 0.00 1.03 0.07 92 1004.4
20260506012307 52 192 0.0 0.9 0.00 1.03 0.07 92 1004.3
20260506012204 52 199 0.0 0.9 0.00 1.03 0.07 92 1004.2
20260506012106 52 199 0.0 0.9 0.00 1.03 0.07 92 1004.4
20260506012005 52 197 0.0 0.9 0.00 1.03 0.07 92 1004.2
20260506011904 52 0 0.0 0.0 0.00 1.03 0.07 92 1004.3
20260506011808 52 0 0.0 0.0 0.00 1.03 0.07 92 1004.3
20260506011605 52 0 0.0 0.0 0.00 1.03 0.07 92 1004.3
20260506011506 52 0 0.0 0.0 0.00 1.03 0.07 92 1004.3
20260506011405 52 0 0.0 0.0 0.00 1.03 0.07 92 1004.4
20260506011306 52 0 0.0 0.0 0.00 1.03 0.07 92 1004.5
20260506011205 52 0 0.0 0.0 0.00 1.03 0.07 92 1004.3
20260506011107 52 0 0.0 0.0 0.00 1.03 0.07 92 1004.5
20260506011010 52 0 0.0 0.0 0.00 1.03 0.07 92 1004.4
20260506010912 52 0 0.0 0.0 0.00 1.03 0.07 92 1004.4
20260506010805 52 0 0.0 0.0 0.00 1.03 0.07 92 1004.4
20260506010605 52 0 0.0 0.0 0.00 1.03 0.07 92 1004.2
20260506010505 52 0 0.0 0.0 0.00 1.03 0.07 92 1004.3
20260506010405 52 0 0.0 0.0 0.00 1.03 0.07 92 1004.3
20260506010305 52 0 0.0 0.0 0.00 1.03 0.07 92 1004.4
20260506010204 52 0 0.0 0.0 0.00 1.03 0.07 92 1004.6
20260506010105 52 0 0.0 0.0 0.00 1.03 0.07 92 1004.3
20260506005904 52 0 0.0 0.0 0.00 1.03 0.07 92 1004.4
20260506005804 52 0 0.0 0.0 0.00 1.03 0.07 92 1004.5
20260506005704 52 0 0.0 0.0 0.00 1.03 0.07 92 1004.3
20260506005604 52 0 0.0 0.0 0.00 1.03 0.07 92 1004.4
20260506005504 52 0 0.0 0.0 0.00 1.03 0.07 92 1004.4
20260506005404 52 0 0.0 0.0 0.00 1.03 0.07 92 1004.3
20260506005204 52 0 0.0 0.0 0.00 1.03 0.07 92 1004.4
20260506005104 52 0 0.0 0.0 0.00 1.03 0.07 92 1004.2
20260506005004 52 0 0.0 0.0 0.00 1.03 0.07 92 1004.3
20260506004904 52 0 0.0 0.0 0.00 1.03 0.07 92 1004.3
20260506004804 52 0 0.0 0.0 0.00 1.03 0.07 92 1004.3
20260506004604 52 297 0.0 1.7 0.00 1.03 0.07 92 1004.3
20260506004504 52 309 0.0 2.6 0.00 1.03 0.07 92 1004.4
20260506004404 52 308 0.0 2.6 0.00 1.03 0.07 92 1004.3
20260506004304 52 303 0.9 2.6 0.00 1.03 0.07 92 1004.3
20260506004204 52 300 0.9 2.6 0.00 1.03 0.07 92 1004.4
20260506004104 52 297 0.9 2.6 0.00 1.03 0.07 92 1004.4
20260506004004 52 296 0.9 2.6 0.00 1.03 0.07 92 1004.4
20260506003804 52 282 0.9 2.6 0.00 1.03 0.07 92 1004.5
20260506003704 52 278 0.9 2.6 0.00 1.03 0.07 92 1004.4
20260506003504 52 266 0.9 2.6 0.00 1.03 0.07 92 1004.3
20260506003404 52 265 0.9 2.6 0.00 1.03 0.07 92 1004.5
20260506003304 52 264 0.9 2.6 0.00 1.03 0.07 92 1004.4
20260506003211 52 263 0.9 2.6 0.00 1.02 0.07 92 1004.5
20260506003204 52 262 0.9 2.6 0.00 1.02 0.07 92 1004.5
20260506003104 52 263 0.9 2.6 0.00 1.02 0.07 92 1004.5
20260506002904 52 261 0.9 2.6 0.00 1.02 0.07 92 1004.4
20260506002804 52 267 0.9 2.6 0.00 1.02 0.07 92 1004.2
20260506002704 52 265 0.9 2.6 0.00 1.02 0.07 92 1004.4
20260506002611 52 264 1.7 2.6 0.00 1.02 0.07 92 1004.3
20260506002604 52 265 1.7 2.6 0.00 1.02 0.07 92 1004.3
20260506002504 52 263 1.7 5.2 0.00 1.02 0.07 92 1004.3
20260506002306 52 258 1.7 6.1 0.00 1.02 0.07 92 1004.4
20260506002204 52 255 2.6 6.1 0.00 1.02 0.07 92 1004.4
20260506002104 52 251 2.6 6.1 0.00 1.02 0.07 92 1004.3
20260506001904 52 246 2.6 7.0 0.00 1.02 0.07 92 1004.3
20260506001804 52 246 2.6 7.0 0.00 1.02 0.07 92 1004.4
20260506001704 52 248 2.6 7.0 0.00 1.02 0.07 92 1004.6
20260506001604 52 248 2.6 7.0 0.00 1.02 0.07 92 1004.4
20260506001511 52 250 2.6 7.0 0.00 1.02 0.07 92 1004.6
20260506001404 52 251 2.6 7.0 0.00 1.02 0.07 92 1004.3
20260506001211 52 254 1.7 7.0 0.01 1.02 0.07 92 1004.4
20260506001104 52 258 1.7 7.0 0.01 1.02 0.07 92 1004.5
20260506000904 52 281 0.9 5.2 0.01 1.02 0.07 92 1004.4
20260506000804 52 288 0.9 2.6 0.01 1.02 0.07 92 1004.5
20260506000704 52 293 0.9 2.6 0.01 1.02 0.07 92 1004.5
20260506000604 52 298 0.9 2.6 0.01 1.02 0.07 92 1004.4
20260506000504 52 300 0.9 2.6 0.01 1.02 0.07 92 1004.3
20260506000404 52 300 0.9 2.6 0.01 1.02 0.07 92 1004.5
20260506000304 52 304 0.9 2.6 0.01 1.02 0.07 92 1004.6
20260506000205 52 306 0.9 2.6 0.01 1.02 0.07 92 1004.5
20260506000104 52 306 0.9 2.6 0.01 1.02 0.07 92 1004.4
20260505235904 52 309 0.9 3.5 0.01 1.02 0.07 92 1004.6
20260505235804 52 311 0.9 3.5 0.01 1.02 0.07 92 1004.6
20260505235604 52 312 0.9 3.5 0.01 1.02 0.07 92 1004.7
20260505235504 52 314 0.9 3.5 0.01 1.02 0.07 92 1004.7
20260505235404 52 315 0.9 3.5 0.01 1.02 0.07 92 1004.7
20260505235305 52 314 0.9 3.5 0.01 1.02 0.07 92 1004.7
20260505235204 52 311 0.0 3.5 0.01 1.02 0.07 92 1004.6
20260505235104 52 312 0.0 3.5 0.01 1.02 0.07 92 1004.8
20260505235004 52 0 0.0 0.0 0.01 1.02 0.07 92 1004.7
20260505234904 52 0 0.0 0.0 0.02 1.02 0.07 92 1004.6
20260505234804 52 0 0.0 0.0 0.02 1.02 0.07 92 1004.6
20260505234704 52 0 0.0 0.0 0.02 1.02 0.07 92 1004.7
20260505234604 52 0 0.0 0.0 0.02 1.02 0.07 92 1004.5
20260505234504 52 0 0.0 0.0 0.02 1.02 0.07 92 1004.6
20260505234404 52 0 0.0 0.0 0.02 1.02 0.07 92 1004.8
20260505234311 52 0 0.0 0.0 0.02 1.02 0.07 92 1004.7
20260505234204 52 0 0.0 0.0 0.02 1.02 0.07 92 1004.8
20260505234004 52 354 0.0 1.7 0.03 1.02 0.07 92 1005.0
20260505233904 52 354 0.0 1.7 0.03 1.02 0.07 92 1004.7
20260505233804 52 354 0.0 1.7 0.03 1.02 0.07 92 1004.9
20260505233704 52 354 0.0 1.7 0.03 1.02 0.07 92 1004.8
20260505233604 52 354 0.0 1.7 0.03 1.02 0.07 92 1004.6
20260505233504 52 354 0.0 1.7 0.03 1.02 0.07 92 1004.9
20260505233404 52 354 0.0 1.7 0.03 1.02 0.07 92 1004.7
20260505233304 52 354 0.0 1.7 0.04 1.02 0.07 92 1004.8
20260505233204 52 354 0.0 1.7 0.04 1.02 0.07 92 1004.8
20260505233104 52 330 0.0 1.7 0.04 1.02 0.07 92 1004.9
20260505233004 52 304 0.0 1.7 0.04 1.02 0.07 92 1004.7
20260505232904 52 303 0.0 1.7 0.04 1.02 0.07 92 1004.8
20260505232804 52 304 0.0 1.7 0.04 1.02 0.07 92 1004.9
20260505232704 52 304 0.0 1.7 0.04 1.02 0.07 92 1004.8
20260505232611 52 306 0.0 1.7 0.04 1.02 0.07 92 1004.7
20260505232504 52 304 0.9 2.6 0.04 1.02 0.07 92 1004.8
20260505232305 52 309 0.9 2.6 0.04 1.02 0.07 92 1004.8
20260505232204 52 310 0.9 2.6 0.04 1.02 0.07 92 1004.8
20260505232104 52 311 0.9 2.6 0.04 1.02 0.07 92 1004.8
20260505232005 52 310 0.9 2.6 0.04 1.02 0.07 92 1004.9
20260505231904 52 308 0.9 3.5 0.04 1.02 0.07 92 1004.9
20260505231804 52 307 0.9 3.5 0.04 1.02 0.07 92 1004.7
20260505231704 52 305 1.7 3.5 0.04 1.02 0.07 92 1004.9
20260505231604 52 300 1.7 3.5 0.04 1.02 0.07 92 1004.8
20260505231404 52 291 1.7 3.5 0.04 1.02 0.07 92 1004.7
20260505231304 52 288 1.7 5.2 0.05 1.02 0.07 92 1004.7
20260505231104 52 278 1.7 5.2 0.04 1.02 0.06 92 1004.8
20260505231004 52 277 1.7 5.2 0.05 1.02 0.06 92 1004.9
20260505230904 52 275 1.7 5.2 0.05 1.02 0.06 92 1004.9
20260505230704 52 282 1.7 5.2 0.05 1.01 0.06 92 1004.9
20260505230604 52 285 1.7 5.2 0.05 1.01 0.06 92 1005.0
20260505230504 52 291 1.7 5.2 0.05 1.01 0.06 92 1005.0
20260505230404 52 293 1.7 5.2 0.05 1.01 0.06 92 1005.0
20260505230304 52 295 1.7 5.2 0.05 1.01 0.06 92 1004.9
20260505230204 52 300 1.7 5.2 0.06 1.01 0.06 92 1005.0
20260505230104 52 304 1.7 5.2 0.06 1.01 0.06 92 1004.9
20260505230004 52 308 2.6 5.2 0.06 1.01 0.06 92 1005.2
20260505225904 52 311 2.6 5.2 0.06 1.01 0.06 92 1005.0
20260505225804 52 313 2.6 5.2 0.06 1.01 0.06 92 1004.9
20260505225704 52 314 2.6 5.2 0.06 1.01 0.06 92 1004.6
20260505225604 52 316 2.6 5.2 0.07 1.01 0.06 92 1004.8
20260505225504 52 319 2.6 5.2 0.07 1.01 0.06 92 1004.9
20260505225306 52 323 2.6 5.2 0.07 1.01 0.06 92 1005.0
20260505225204 52 326 3.5 5.2 0.08 1.01 0.06 92 1004.8
20260505225104 52 326 3.5 5.2 0.08 1.01 0.06 92 1005.0
20260505225004 52 327 3.5 5.2 0.09 1.01 0.06 92 1004.8
20260505224904 52 328 3.5 5.2 0.09 1.01 0.06 92 1005.0
20260505224804 52 329 3.5 5.2 0.09 1.01 0.06 92 1004.9
20260505224704 52 328 3.5 5.2 0.09 1.01 0.06 92 1005.0
20260505224604 52 327 3.5 5.2 0.10 1.01 0.06 92 1005.0
20260505224504 52 325 3.5 5.2 0.09 1.00 0.05 92 1004.9
20260505224404 52 324 3.5 5.2 0.10 1.00 0.05 92 1004.8
20260505224304 52 325 3.5 6.1 0.10 1.00 0.05 92 1004.9
20260505224204 52 324 3.5 6.1 0.10 1.00 0.05 92 1004.9
20260505224105 52 325 3.5 6.1 0.10 1.00 0.05 92 1004.9
20260505224004 52 326 3.5 6.1 0.10 1.00 0.04 92 1004.8
20260505223904 52 326 3.5 6.1 0.11 1.00 0.04 92 1004.8
20260505223804 52 326 2.6 6.1 0.11 1.00 0.04 92 1005.0
20260505223605 53 327 2.6 6.1 0.12 0.99 0.04 92 1004.9
20260505223505 53 327 2.6 6.1 0.13 0.99 0.04 92 1004.9
20260505223404 53 327 2.6 6.1 0.13 0.99 0.04 92 1005.0
20260505223304 53 326 2.6 6.1 0.15 0.99 0.04 92 1004.7
20260505223204 53 325 2.6 6.1 0.15 0.99 0.04 92 1004.9
20260505223104 53 321 2.6 3.5 0.16 0.99 0.04 92 1004.9
20260505223004 53 319 2.6 3.5 0.16 0.98 0.03 92 1005.0
20260505222904 53 318 2.6 3.5 0.17 0.98 0.03 92 1005.0
20260505222804 53 315 2.6 3.5 0.18 0.98 0.03 92 1004.9
20260505222704 53 313 2.6 3.5 0.18 0.98 0.03 92 1005.0
20260505222604 53 310 2.6 3.5 0.19 0.99 0.03 92 1005.1
20260505222504 53 308 2.6 3.5 0.20 0.99 0.03 92 1005.1
20260505222411 53 306 2.6 3.5 0.20 0.99 0.03 92 1004.9
20260505222404 53 305 2.6 3.5 0.20 0.99 0.03 92 1004.9
20260505222306 53 303 1.7 3.5 0.20 0.98 0.03 92 1005.0
20260505222104 53 302 1.7 3.5 0.21 0.98 0.03 92 1005.1
20260505222004 53 301 1.7 3.5 0.22 0.98 0.03 92 1005.1
20260505221804 53 299 1.7 3.5 0.22 0.98 0.02 92 1004.9
20260505221705 53 301 1.7 2.6 0.22 0.98 0.02 92 1005.2
20260505221604 53 304 1.7 2.6 0.22 0.98 0.02 92 1004.9
20260505221404 53 312 1.7 2.6 0.24 0.98 0.02 91 1005.0
20260505221311 53 316 1.7 2.6 0.24 0.98 0.02 91 1005.1
20260505221304 53 317 1.7 2.6 0.24 0.98 0.02 92 1005.1
20260505221204 53 323 0.9 2.6 0.25 0.98 0.02 92 1005.3
20260505221004 53 340 0.9 2.6 0.26 0.97 0.02 91 1005.1
20260505220904 53 351 1.7 3.5 0.26 0.97 0.02 92 1005.3
20260505220804 53 1 1.7 3.5 0.27 0.97 0.02 92 1005.2
20260505220704 53 7 1.7 3.5 0.28 0.97 0.01 91 1005.3
20260505220604 53 10 1.7 3.5 0.28 0.97 0.01 91 1005.2
20260505220504 53 6 1.7 3.5 0.28 0.96 0.01 91 1005.2
20260505220411 53 4 1.7 3.5 0.28 0.96 0.01 91 1005.2
20260505220404 53 4 2.6 3.5 0.28 0.96 0.01 91 1005.2
20260505220313 53 2 2.6 3.5 0.28 0.96 0.01 92 1005.0
20260505220229 53 359 2.6 3.5 0.29 0.96 0.00 92 1005.2
20260505215904 53 347 2.6 3.5 0.29 0.95 0.95 91 1005.0
20260505215804 53 340 2.6 3.5 0.30 0.95 0.95 91 1005.4
20260505215704 53 335 2.6 3.5 0.31 0.95 0.95 91 1005.2
20260505215604 53 333 1.7 3.5 0.31 0.95 0.95 91 1005.3
20260505215504 53 329 1.7 3.5 0.31 0.94 0.94 91 1005.3
20260505215405 53 324 1.7 3.5 0.31 0.94 0.94 91 1005.3
20260505215305 53 320 1.7 3.5 0.32 0.94 0.94 91 1005.2
20260505215204 53 318 1.7 2.6 0.32 0.94 0.94 91 1005.0
20260505215104 53 318 1.7 2.6 0.33 0.94 0.94 91 1005.4
20260505215005 53 316 1.7 2.6 0.32 0.93 0.93 91 1005.3
20260505214904 53 319 1.7 2.6 0.33 0.93 0.93 91 1005.4
20260505214804 53 323 1.7 2.6 0.33 0.92 0.92 91 1005.4
20260505214704 53 325 1.7 2.6 0.33 0.92 0.92 91 1005.2
20260505214505 53 337 1.7 3.5 0.34 0.91 0.91 91 1005.2
20260505214404 53 348 1.7 3.5 0.34 0.91 0.91 91 1005.2
20260505214305 53 360 2.6 6.1 0.35 0.91 0.91 91 1005.2
20260505214204 53 8 2.6 6.1 0.35 0.91 0.91 91 1005.3
20260505214104 53 13 2.6 6.1 0.35 0.90 0.90 91 1005.2
20260505214004 53 19 2.6 6.1 0.35 0.90 0.90 91 1005.2
20260505213911 53 20 3.5 6.1 0.35 0.89 0.89 91 1005.3
20260505213904 53 21 3.5 6.1 0.35 0.89 0.89 91 1005.3
20260505213804 53 23 3.5 6.1 0.34 0.89 0.89 91 1005.3
20260505213604 54 24 3.5 6.1 0.34 0.88 0.88 91 1005.5
20260505213504 54 23 3.5 6.1 0.34 0.87 0.87 91 1005.3
20260505213404 54 22 3.5 6.1 0.33 0.86 0.86 91 1005.4
20260505213304 54 21 3.5 6.1 0.32 0.85 0.85 91 1005.4
20260505213104 54 20 3.5 6.1 0.32 0.83 0.83 91 1005.4
20260505213004 54 13 3.5 6.1 0.32 0.83 0.83 91 1005.3
20260505212904 54 9 3.5 6.1 0.31 0.82 0.82 91 1005.5
20260505212805 54 7 3.5 6.1 0.30 0.81 0.81 90 1005.6
20260505212704 54 8 3.5 6.1 0.31 0.81 0.81 90 1005.5
20260505212404 54 7 2.6 7.0 0.30 0.78 0.78 90 1005.4
20260505212306 54 360 2.6 7.0 0.30 0.78 0.78 90 1005.4
20260505212204 54 348 2.6 7.0 0.30 0.78 0.78 90 1005.5
20260505212104 54 336 1.7 7.0 0.31 0.77 0.77 90 1005.5
20260505212011 55 341 1.7 7.0 0.30 0.76 0.76 90 1005.5
20260505212005 55 343 1.7 7.0 0.30 0.76 0.76 90 1005.5
20260505211904 55 328 1.7 7.0 0.31 0.76 0.76 90 1005.5
20260505211704 55 221 0.9 7.0 0.33 0.76 0.76 90 1005.5
20260505211604 55 218 0.9 5.2 0.33 0.76 0.76 90 1005.3
20260505211404 55 214 0.9 5.2 0.34 0.74 0.74 90 1005.4
20260505211306 55 204 0.9 2.6 0.34 0.74 0.74 90 1005.5
20260505211205 55 198 0.0 2.6 0.33 0.72 0.72 90 1005.6
20260505211105 55 194 0.0 2.6 0.33 0.72 0.72 90 1005.4
20260505211005 55 186 0.0 2.6 0.33 0.71 0.71 90 1005.4
20260505210904 55 48 0.0 0.9 0.33 0.71 0.71 90 1005.3
20260505210805 55 48 0.0 0.9 0.35 0.70 0.70 90 1005.4
20260505210704 55 48 0.0 0.9 0.34 0.69 0.69 90 1005.5
20260505210604 55 48 0.0 0.9 0.34 0.69 0.69 90 1005.5
20260505210505 55 48 0.0 0.9 0.34 0.69 0.69 90 1005.2
20260505210404 55 48 0.0 0.9 0.35 0.68 0.68 90 1005.3
20260505210305 55 48 0.0 0.9 0.36 0.68 0.68 90 1005.2
20260505210204 55 48 0.0 0.9 0.36 0.67 0.67 90 1005.3
20260505210006 55 48 0.0 0.9 0.36 0.67 0.67 90 1005.5
20260505205905 55 0 0.0 0.0 0.36 0.66 0.66 90 1005.3
20260505205804 55 0 0.0 0.0 0.35 0.65 0.65 90 1005.6
20260505205704 55 12 0.0 0.9 0.35 0.65 0.65 90 1005.4
20260505205604 55 13 0.0 1.7 0.35 0.64 0.64 90 1005.2
20260505205505 55 17 0.0 1.7 0.35 0.63 0.63 90 1005.4
20260505205305 55 34 0.9 3.5 0.35 0.62 0.62 90 1005.3
20260505205204 55 34 0.9 3.5 0.35 0.61 0.61 90 1005.4
20260505205104 55 34 0.9 3.5 0.35 0.61 0.61 90 1005.4
20260505205007 55 34 0.9 3.5 0.35 0.61 0.61 89 1005.4
20260505204904 55 36 0.9 3.5 0.35 0.60 0.61 89 1005.4
20260505204811 55 39 0.9 3.5 0.35 0.59 0.60 89 1005.4
20260505204805 55 39 0.9 3.5 0.35 0.59 0.59 89 1005.4
20260505204705 55 42 0.9 3.5 0.35 0.59 0.59 89 1005.5
20260505204511 55 42 0.9 3.5 0.34 0.57 0.58 90 1005.4
20260505204404 55 43 0.9 3.5 0.34 0.57 0.57 89 1005.4
20260505204312 56 44 0.9 2.6 0.33 0.56 0.56 89 1005.4
20260505204204 56 42 0.9 2.6 0.33 0.56 0.56 89 1005.3
20260505204112 56 39 1.7 2.6 0.33 0.56 0.56 89 1005.5
20260505204011 56 37 1.7 2.6 0.33 0.55 0.55 89 1005.3
20260505204007 56 36 1.7 2.6 0.33 0.55 0.55 89 1005.3
20260505203914 56 34 1.7 3.5 0.33 0.55 0.55 89 1005.1
20260505203604 56 29 1.7 3.5 0.33 0.54 0.54 89 1005.3
20260505203505 56 29 1.7 3.5 0.33 0.53 0.53 89 1005.4
20260505203404 56 27 1.7 3.5 0.33 0.53 0.53 89 1005.4
20260505203304 56 25 1.7 3.5 0.33 0.52 0.52 89 1005.3
20260505203204 56 24 1.7 3.5 0.33 0.52 0.52 89 1005.5
20260505203104 56 26 0.9 3.5 0.33 0.52 0.52 89 1005.1
20260505203005 56 27 0.9 3.5 0.33 0.51 0.51 89 1005.1
20260505202904 56 29 0.9 3.5 0.33 0.51 0.51 89 1005.3
20260505202804 56 24 0.9 3.5 0.33 0.51 0.51 89 1005.2
20260505202704 56 360 0.0 2.6 0.33 0.50 0.50 89 1005.2
20260505202606 56 327 0.0 1.7 0.33 0.50 0.50 89 1005.2
20260505202404 56 0 0.0 0.0 0.33 0.49 0.49 89 1005.1
20260505202306 56 0 0.0 0.0 0.33 0.48 0.48 89 1005.2
20260505202204 56 0 0.0 0.0 0.32 0.47 0.48 89 1005.2
20260505202104 57 0 0.0 0.0 0.32 0.46 0.46 89 1005.2
20260505202005 57 0 0.0 0.0 0.31 0.46 0.46 89 1005.5
20260505201904 57 0 0.0 0.0 0.31 0.45 0.45 89 1005.3
20260505201804 57 0 0.0 0.0 0.30 0.44 0.44 89 1005.2
20260505201712 57 0 0.0 0.0 0.29 0.43 0.44 89 1005.3
20260505201704 57 0 0.0 0.0 0.29 0.43 0.43 89 1005.3
20260505201605 57 0 0.0 0.0 0.30 0.43 0.43 89 1005.2
20260505201404 57 0 0.0 0.0 0.28 0.41 0.41 89 1005.4
20260505201304 57 0 0.0 0.0 0.28 0.40 0.40 89 1005.5
20260505201104 57 0 0.0 0.0 0.27 0.39 0.39 89 1005.5
20260505201004 57 0 0.0 0.0 0.26 0.38 0.38 89 1005.3
20260505200911 57 0 0.0 0.0 0.26 0.37 0.37 89 1005.3
20260505200604 57 0 0.0 0.0 0.24 0.35 0.35 88 1005.1
20260505200504 57 0 0.0 0.0 0.24 0.34 0.34 88 1005.2
20260505200404 57 0 0.0 0.0 0.22 0.33 0.33 88 1005.4
20260505200304 57 0 0.0 0.0 0.22 0.32 0.32 88 1005.3
20260505200204 57 0 0.0 0.0 0.22 0.31 0.31 88 1005.3
20260505200104 57 0 0.0 0.0 0.21 0.31 0.31 88 1005.4
20260505195904 57 0 0.0 0.0 0.20 0.30 0.30 88 1005.2
20260505195804 57 0 0.0 0.0 0.21 0.30 0.30 88 1005.3
20260505195704 57 0 0.0 0.0 0.20 0.30 0.30 88 1005.3
20260505195613 57 0 0.0 0.0 0.20 0.29 0.29 88 1005.3
20260505195504 57 0 0.0 0.0 0.19 0.28 0.28 88 1005.2
20260505195204 57 0 0.0 0.0 0.19 0.27 0.27 88 1005.3
20260505195104 57 0 0.0 0.0 0.18 0.26 0.26 88 1005.3
20260505195005 57 0 0.0 0.0 0.18 0.26 0.26 88 1005.4
20260505194904 57 0 0.0 0.0 0.17 0.25 0.25 88 1005.2
20260505194804 57 0 0.0 0.0 0.17 0.25 0.25 88 1005.2
20260505194705 57 0 0.0 0.0 0.17 0.24 0.24 88 1005.4
20260505194604 57 0 0.0 0.0 0.16 0.24 0.24 88 1005.3
20260505194504 57 0 0.0 0.0 0.16 0.23 0.23 88 1005.3
20260505194404 57 0 0.0 0.0 0.16 0.23 0.23 88 1005.3
20260505194204 57 0 0.0 0.0 0.15 0.22 0.22 88 1005.2
20260505194104 57 0 0.0 0.0 0.15 0.22 0.22 87 1005.1
20260505194006 57 0 0.0 0.0 0.15 0.22 0.22 88 1005.1
20260505193904 57 0 0.0 0.0 0.15 0.22 0.22 87 1005.3
20260505193804 57 0 0.0 0.0 0.15 0.22 0.22 87 1005.2
20260505193712 57 0 0.0 0.0 0.14 0.21 0.21 87 1005.3
20260505193604 57 0 0.0 0.0 0.13 0.20 0.20 87 1005.3
20260505193411 57 0 0.0 0.0 0.13 0.20 0.20 87 1005.3
20260505193304 57 0 0.0 0.0 0.12 0.19 0.19 87 1005.2
20260505193104 57 0 0.0 0.0 0.11 0.19 0.19 87 1005.2
20260505193004 57 0 0.0 0.0 0.11 0.19 0.19 87 1005.3
20260505192904 57 0 0.0 0.0 0.11 0.18 0.18 87 1005.2
20260505192804 57 0 0.0 0.0 0.10 0.17 0.17 87 1005.3
20260505192705 57 0 0.0 0.0 0.10 0.17 0.17 87 1005.4
20260505192605 58 0 0.0 0.0 0.09 0.17 0.17 87 1005.4
20260505192504 58 0 0.0 0.0 0.09 0.16 0.16 87 1005.4
20260505192404 58 0 0.0 0.0 0.08 0.15 0.16 87 1005.5
20260505192204 58 0 0.0 0.0 0.08 0.15 0.15 87 1005.4
20260505192105 58 0 0.0 0.0 0.08 0.15 0.15 87 1005.5
20260505192004 58 0 0.0 0.0 0.08 0.15 0.15 87 1005.3
20260505191905 58 0 0.0 0.0 0.07 0.14 0.14 87 1005.3
20260505191804 58 0 0.0 0.0 0.07 0.14 0.14 87 1005.5
20260505191704 58 0 0.0 0.0 0.07 0.14 0.14 87 1005.4
20260505191604 58 0 0.0 0.0 0.07 0.13 0.14 87 1005.4
20260505191504 58 0 0.0 0.0 0.07 0.13 0.13 87 1005.4